Time,TemperatureF,DewpointF,PressureIn,WindDirection,WindDirectionDegrees,WindSpeedMPH,WindSpeedGustMPH,Humidity,HourlyPrecipIn,Conditions,Clouds,dailyrainin,SolarRadiationWatts/m^2,SoftwareType,DateUTC
2013-11-03 00:02:00,42.4,29.1,30.00,South,175,3.0,9.0,59,0.00,,,0.00,0,WeatherCatV1.23B16,2013-11-03 05:02:00,
2013-11-03 00:03:00,42.4,29.1,29.99,South,173,0.0,9.0,59,0.00,,,0.00,0,WeatherCatV1.23B16,2013-11-03 05:03:00,
2013-11-03 00:04:00,42.3,29.0,29.99,South,171,0.0,9.0,59,0.00,,,0.00,0,WeatherCatV1.23B16,2013-11-03 05:04:00,
2013-11-03 00:07:00,42.3,29.0,29.99,SSE,156,6.0,6.0,59,0.00,,,0.00,0,WeatherCatV1.23B16,2013-11-03 05:07:00,
2013-11-03 00:08:00,42.3,29.0,29.99,SSE,156,6.0,6.0,59,0.00,,,0.00,0,WeatherCatV1.23B16,2013-11-03 05:08:00,
2013-11-03 00:09:00,42.2,29.3,29.99,South,178,2.0,6.0,60,0.00,,,0.00,0,WeatherCatV1.23B16,2013-11-03 05:09:00,
2013-11-03 00:13:00,42.2,29.3,29.99,South,171,4.0,8.0,60,0.00,,,0.00,0,WeatherCatV1.23B16,2013-11-03 05:13:00,
2013-11-03 00:14:00,42.1,29.2,29.99,SSE,150,1.0,6.0,60,0.00,,,0.00,0,WeatherCatV1.23B16,2013-11-03 05:14:00,
2013-11-03 00:18:00,41.9,29.5,29.99,South,178,2.0,9.0,61,0.00,,,0.00,0,WeatherCatV1.23B16,2013-11-03 05:18:00,
2013-11-03 00:19:00,41.8,29.4,29.99,SSE,167,7.0,10.0,61,0.00,,,0.00,0,WeatherCatV1.23B16,2013-11-03 05:19:00,
2013-11-03 00:23:00,41.7,29.3,29.99,South,169,3.0,6.0,61,0.00,,,0.00,0,WeatherCatV1.23B16,2013-11-03 05:23:00,
2013-11-03 00:24:00,41.6,29.2,29.99,SSE,168,0.0,6.0,61,0.00,,,0.00,0,WeatherCatV1.23B16,2013-11-03 05:24:00,
2013-11-03 00:28:00,41.5,29.1,29.98,SE,145,5.0,9.0,61,0.00,,,0.00,0,WeatherCatV1.23B16,2013-11-03 05:28:00,
2013-11-03 00:29:00,41.5,29.1,29.98,SE,144,5.0,9.0,61,0.00,,,0.00,0,WeatherCatV1.23B16,2013-11-03 05:29:00,
2013-11-03 00:30:00,41.5,29.1,29.98,SSW,202,3.0,11.0,61,0.00,,,0.00,0,WeatherCatV1.23B16,2013-11-03 05:30:00,
2013-11-03 00:33:00,41.7,29.3,29.98,South,180,1.0,13.0,61,0.00,,,0.00,0,WeatherCatV1.23B16,2013-11-03 05:33:00,
2013-11-03 00:34:00,41.7,29.3,29.98,SSE,167,11.0,11.0,61,0.00,,,0.00,0,WeatherCatV1.23B16,2013-11-03 05:34:00,
2013-11-03 00:35:00,42.0,29.5,29.98,SE,146,6.0,13.0,61,0.00,,,0.00,0,WeatherCatV1.23B16,2013-11-03 05:35:00,
2013-11-03 00:38:00,42.3,29.8,29.98,SSE,163,7.0,17.0,61,0.00,,,0.00,0,WeatherCatV1.23B16,2013-11-03 05:38:00,
2013-11-03 00:39:00,42.4,29.5,29.98,SSE,155,4.0,17.0,60,0.00,,,0.00,0,WeatherCatV1.23B16,2013-11-03 05:39:00,
2013-11-03 00:40:00,42.5,29.6,29.98,SSW,210,12.0,13.0,60,0.00,,,0.00,0,WeatherCatV1.23B16,2013-11-03 05:40:00,
2013-11-03 00:43:00,42.8,29.9,29.98,SSW,193,11.0,13.0,60,0.00,,,0.00,0,WeatherCatV1.23B16,2013-11-03 05:43:00,
2013-11-03 00:44:00,42.8,29.9,29.97,South,185,5.0,16.0,60,0.00,,,0.00,0,WeatherCatV1.23B16,2013-11-03 05:44:00,
2013-11-03 00:45:00,42.8,29.5,29.97,SSW,198,9.0,16.0,59,0.00,,,0.00,0,WeatherCatV1.23B16,2013-11-03 05:45:00,
2013-11-03 00:46:00,42.9,29.6,29.97,South,172,5.0,12.0,59,0.00,,,0.00,0,WeatherCatV1.23B16,2013-11-03 05:46:00,
2013-11-03 00:48:00,42.9,29.6,29.97,SSW,205,0.0,9.0,59,0.00,,,0.00,0,WeatherCatV1.23B16,2013-11-03 05:48:00,
2013-11-03 00:49:00,42.9,30.0,29.97,South,176,3.0,9.0,60,0.00,,,0.00,0,WeatherCatV1.23B16,2013-11-03 05:49:00,
2013-11-03 00:50:00,42.8,29.9,29.97,South,173,9.0,18.0,60,0.00,,,0.00,0,WeatherCatV1.23B16,2013-11-03 05:50:00,
2013-11-03 00:51:00,42.8,29.9,29.97,SSW,208,5.0,18.0,60,0.00,,,0.00,0,WeatherCatV1.23B16,2013-11-03 05:51:00,
2013-11-03 00:53:00,42.8,29.5,29.97,SE,144,5.0,13.0,59,0.00,,,0.00,0,WeatherCatV1.23B16,2013-11-03 05:53:00,
2013-11-03 00:54:00,42.8,29.9,29.97,SSW,209,10.0,13.0,60,0.00,,,0.00,0,WeatherCatV1.23B16,2013-11-03 05:54:00,
2013-11-03 00:55:00,42.8,29.9,29.98,SSW,206,9.0,9.0,60,0.00,,,0.00,0,WeatherCatV1.23B16,2013-11-03 05:55:00,
2013-11-03 00:56:00,42.8,29.9,29.97,SE,131,6.0,9.0,60,0.00,,,0.00,0,WeatherCatV1.23B16,2013-11-03 05:56:00,
2013-11-03 00:58:00,42.8,29.9,29.97,SSE,163,9.0,14.0,60,0.00,,,0.00,0,WeatherCatV1.23B16,2013-11-03 05:58:00,
2013-11-03 00:59:00,42.8,29.9,29.98,South,176,6.0,14.0,60,0.00,,,0.00,0,WeatherCatV1.23B16,2013-11-03 05:59:00,
2013-11-03 01:00:00,42.8,29.9,29.97,South,188,4.0,13.0,60,0.00,,,0.00,0,WeatherCatV1.23B16,2013-11-03 06:00:00,
2013-11-03 01:01:00,42.8,29.9,29.97,SSW,198,5.0,13.0,60,0.00,,,0.00,0,WeatherCatV1.23B16,2013-11-03 06:01:00,
2013-11-03 01:03:00,42.7,29.8,29.97,South,184,14.0,14.0,60,0.00,,,0.00,0,WeatherCatV1.23B16,2013-11-03 06:03:00,
2013-11-03 01:04:00,42.7,29.8,29.97,South,172,4.0,14.0,60,0.00,,,0.00,0,WeatherCatV1.23B16,2013-11-03 06:04:00,
2013-11-03 01:05:00,42.7,29.8,29.97,South,179,16.0,16.0,60,0.00,,,0.00,0,WeatherCatV1.23B16,2013-11-03 06:05:00,
2013-11-03 01:06:00,42.7,29.8,29.97,SSE,157,2.0,16.0,60,0.00,,,0.00,0,WeatherCatV1.23B16,2013-11-03 06:06:00,
2013-11-03 01:08:00,42.7,29.8,29.97,South,169,4.0,15.0,60,0.00,,,0.00,0,WeatherCatV1.23B16,2013-11-03 06:08:00,
2013-11-03 01:09:00,42.6,29.7,29.97,South,188,11.0,15.0,60,0.00,,,0.00,0,WeatherCatV1.23B16,2013-11-03 06:09:00,
2013-11-03 01:10:00,42.6,29.7,29.97,SSW,192,9.0,15.0,60,0.00,,,0.00,0,WeatherCatV1.23B16,2013-11-03 06:10:00,
2013-11-03 01:11:00,42.6,29.7,29.97,South,180,5.0,14.0,60,0.00,,,0.00,0,WeatherCatV1.23B16,2013-11-03 06:11:00,
2013-11-03 01:12:00,42.6,29.7,29.97,South,184,9.0,11.0,60,0.00,,,0.00,0,WeatherCatV1.23B16,2013-11-03 06:12:00,
2013-11-03 01:14:00,42.5,29.6,29.97,South,171,2.0,12.0,60,0.00,,,0.00,0,WeatherCatV1.23B16,2013-11-03 06:14:00,
2013-11-03 01:15:00,42.4,29.5,29.97,South,175,15.0,15.0,60,0.00,,,0.00,0,WeatherCatV1.23B16,2013-11-03 06:15:00,
2013-11-03 01:16:00,42.4,29.5,29.97,SE,131,9.0,15.0,60,0.00,,,0.00,0,WeatherCatV1.23B16,2013-11-03 06:16:00,
2013-11-03 01:17:00,42.4,29.9,29.97,SE,142,6.0,15.0,61,0.00,,,0.00,0,WeatherCatV1.23B16,2013-11-03 06:17:00,
2013-11-03 01:19:00,42.4,29.9,29.97,SE,142,2.0,10.0,61,0.00,,,0.00,0,WeatherCatV1.23B16,2013-11-03 06:19:00,
2013-11-03 01:20:00,42.3,29.8,29.97,SSE,153,9.0,13.0,61,0.00,,,0.00,0,WeatherCatV1.23B16,2013-11-03 06:20:00,
2013-11-03 01:21:00,42.3,29.8,29.97,South,176,5.0,14.0,61,0.00,,,0.00,0,WeatherCatV1.23B16,2013-11-03 06:21:00,
2013-11-03 01:22:00,42.3,29.8,29.97,South,190,3.0,14.0,61,0.00,,,0.00,0,WeatherCatV1.23B16,2013-11-03 06:22:00,
2013-11-03 01:24:00,42.3,29.8,29.97,SSW,201,13.0,13.0,61,0.00,,,0.00,0,WeatherCatV1.23B16,2013-11-03 06:24:00,
2013-11-03 01:25:00,42.3,29.8,29.97,South,178,4.0,15.0,61,0.00,,,0.00,0,WeatherCatV1.23B16,2013-11-03 06:25:00,
2013-11-03 01:27:00,42.2,29.7,29.97,SSE,155,12.0,14.0,61,0.00,,,0.00,0,WeatherCatV1.23B16,2013-11-03 06:27:00,
2013-11-03 01:29:00,42.2,29.7,29.96,SE,138,6.0,12.0,61,0.00,,,0.00,0,WeatherCatV1.23B16,2013-11-03 06:29:00,
2013-11-03 01:30:00,42.2,29.7,29.96,SE,133,3.0,13.0,61,0.00,,,0.00,0,WeatherCatV1.23B16,2013-11-03 06:30:00,
2013-11-03 01:31:00,42.2,29.7,29.96,SE,133,2.0,13.0,61,0.00,,,0.00,0,WeatherCatV1.23B16,2013-11-03 06:31:00,
2013-11-03 01:32:00,42.2,29.7,29.96,SSE,167,6.0,11.0,61,0.00,,,0.00,0,WeatherCatV1.23B16,2013-11-03 06:32:00,
2013-11-03 01:34:00,42.1,29.6,29.96,South,182,4.0,10.0,61,0.00,,,0.00,0,WeatherCatV1.23B16,2013-11-03 06:34:00,
2013-11-03 01:36:00,42.1,30.0,29.96,South,173,5.0,11.0,62,0.00,,,0.00,0,WeatherCatV1.23B16,2013-11-03 06:36:00,
2013-11-03 01:37:00,42.1,30.0,29.96,South,186,6.0,9.0,62,0.00,,,0.00,0,WeatherCatV1.23B16,2013-11-03 06:37:00,
2013-11-03 01:39:00,42.2,30.1,29.96,SSW,194,2.0,13.0,62,0.00,,,0.00,0,WeatherCatV1.23B16,2013-11-03 06:39:00,
2013-11-03 01:41:00,42.2,29.7,29.96,South,178,4.0,9.0,61,0.00,,,0.00,0,WeatherCatV1.23B16,2013-11-03 06:41:00,
2013-11-03 01:42:00,42.2,29.7,29.96,South,171,2.0,10.0,61,0.00,,,0.00,0,WeatherCatV1.23B16,2013-11-03 06:42:00,
2013-11-03 01:43:00,42.2,29.7,29.96,South,171,2.0,10.0,61,0.00,,,0.00,0,WeatherCatV1.23B16,2013-11-03 06:43:00,
2013-11-03 01:44:00,42.2,30.1,29.96,South,190,8.0,8.0,62,0.00,,,0.00,0,WeatherCatV1.23B16,2013-11-03 06:44:00,
2013-11-03 01:45:00,42.2,30.1,29.96,SE,136,6.0,12.0,62,0.00,,,0.00,0,WeatherCatV1.23B16,2013-11-03 06:45:00,
2013-11-03 01:46:00,42.2,30.1,29.96,South,169,7.0,12.0,62,0.00,,,0.00,0,WeatherCatV1.23B16,2013-11-03 06:46:00,
2013-11-03 01:47:00,42.3,30.2,29.96,South,173,3.0,14.0,62,0.00,,,0.00,0,WeatherCatV1.23B16,2013-11-03 06:47:00,
2013-11-03 01:49:00,42.3,30.2,29.96,SSE,150,1.0,14.0,62,0.00,,,0.00,0,WeatherCatV1.23B16,2013-11-03 06:49:00,
2013-11-03 01:50:00,42.3,29.8,29.96,SSW,210,10.0,14.0,61,0.00,,,0.00,0,WeatherCatV1.23B16,2013-11-03 06:50:00,
2013-11-03 01:51:00,42.4,29.9,29.96,SE,142,4.0,14.0,61,0.00,,,0.00,0,WeatherCatV1.23B16,2013-11-03 06:51:00,
2013-11-03 01:52:00,42.4,29.9,29.96,South,181,5.0,13.0,61,0.00,,,0.00,0,WeatherCatV1.23B16,2013-11-03 06:52:00,
2013-11-03 01:54:00,42.5,30.0,29.96,South,184,6.0,18.0,61,0.00,,,0.00,0,WeatherCatV1.23B16,2013-11-03 06:54:00,
2013-11-03 01:55:00,42.5,30.0,29.96,SE,132,6.0,10.0,61,0.00,,,0.00,0,WeatherCatV1.23B16,2013-11-03 06:55:00,
2013-11-03 01:56:00,42.5,30.0,29.96,South,172,1.0,6.0,61,0.00,,,0.00,0,WeatherCatV1.23B16,2013-11-03 06:56:00,
2013-11-03 01:57:00,42.5,30.0,29.96,South,171,11.0,15.0,61,0.00,,,0.00,0,WeatherCatV1.23B16,2013-11-03 06:57:00,
2013-11-03 01:58:00,42.6,30.1,29.95,SE,144,5.0,15.0,61,0.00,,,0.00,0,WeatherCatV1.23B16,2013-11-03 06:58:00,
2013-11-03 01:59:00,42.7,30.2,29.95,SSW,196,5.0,13.0,61,0.00,,,0.00,0,WeatherCatV1.23B16,2013-11-03 06:59:00,
2013-11-03 01:00:00,42.7,30.2,29.95,SE,144,12.0,18.0,61,0.00,,,0.00,0,WeatherCatV1.23B16,2013-11-03 07:00:00,
2013-11-03 01:01:00,42.8,30.3,29.95,SSW,198,3.0,18.0,61,0.00,,,0.00,0,WeatherCatV1.23B16,2013-11-03 07:01:00,
2013-11-03 01:02:00,42.8,30.3,29.95,SSE,163,2.0,18.0,61,0.00,,,0.00,0,WeatherCatV1.23B16,2013-11-03 07:02:00,
2013-11-03 01:03:00,42.8,30.3,29.95,SE,136,7.0,12.0,61,0.00,,,0.00,0,WeatherCatV1.23B16,2013-11-03 07:03:00,
2013-11-03 01:04:00,42.8,30.3,29.95,SSE,157,4.0,12.0,61,0.00,,,0.00,0,WeatherCatV1.23B16,2013-11-03 07:04:00,
2013-11-03 01:05:00,42.8,30.3,29.95,SE,136,3.0,12.0,61,0.00,,,0.00,0,WeatherCatV1.23B16,2013-11-03 07:05:00,
2013-11-03 01:07:00,42.7,30.2,29.95,SSE,159,9.0,9.0,61,0.00,,,0.00,0,WeatherCatV1.23B16,2013-11-03 07:07:00,
2013-11-03 01:09:00,42.7,30.2,29.95,South,187,4.0,11.0,61,0.00,,,0.00,0,WeatherCatV1.23B16,2013-11-03 07:09:00,
2013-11-03 01:10:00,42.6,30.1,29.95,SW,225,9.0,11.0,61,0.00,,,0.00,0,WeatherCatV1.23B16,2013-11-03 07:10:00,
2013-11-03 01:11:00,42.7,30.2,29.95,SSW,199,6.0,15.0,61,0.00,,,0.00,0,WeatherCatV1.23B16,2013-11-03 07:11:00,
2013-11-03 01:12:00,42.7,30.2,29.95,South,172,10.0,15.0,61,0.00,,,0.00,0,WeatherCatV1.23B16,2013-11-03 07:12:00,
2013-11-03 01:14:00,42.7,30.2,29.95,SE,140,5.0,13.0,61,0.00,,,0.00,0,WeatherCatV1.23B16,2013-11-03 07:14:00,
2013-11-03 01:15:00,42.6,30.1,29.95,SSE,150,4.0,13.0,61,0.00,,,0.00,0,WeatherCatV1.23B16,2013-11-03 07:15:00,
2013-11-03 01:16:00,42.6,30.1,29.95,SSE,160,14.0,14.0,61,0.00,,,0.00,0,WeatherCatV1.23B16,2013-11-03 07:16:00,
2013-11-03 01:17:00,42.6,30.1,29.95,SE,144,7.0,14.0,61,0.00,,,0.00,0,WeatherCatV1.23B16,2013-11-03 07:17:00,
2013-11-03 01:19:00,42.4,30.3,29.95,SSE,168,6.0,13.0,62,0.00,,,0.00,0,WeatherCatV1.23B16,2013-11-03 07:19:00,
2013-11-03 01:20:00,42.4,30.3,29.95,South,182,5.0,13.0,62,0.00,,,0.00,0,WeatherCatV1.23B16,2013-11-03 07:20:00,
2013-11-03 01:21:00,42.4,30.3,29.95,SE,146,5.0,17.0,62,0.00,,,0.00,0,WeatherCatV1.23B16,2013-11-03 07:21:00,
2013-11-03 01:22:00,42.4,30.3,29.95,SSE,159,6.0,17.0,62,0.00,,,0.00,0,WeatherCatV1.23B16,2013-11-03 07:22:00,
2013-11-03 01:23:00,42.4,30.3,29.95,SSE,156,2.0,15.0,62,0.00,,,0.00,0,WeatherCatV1.23B16,2013-11-03 07:23:00,
2013-11-03 01:25:00,42.3,30.2,29.95,South,173,2.0,12.0,62,0.00,,,0.00,0,WeatherCatV1.23B16,2013-11-03 07:25:00,
2013-11-03 01:26:00,42.2,30.1,29.95,SSW,210,6.0,12.0,62,0.00,,,0.00,0,WeatherCatV1.23B16,2013-11-03 07:26:00,
2013-11-03 01:27:00,42.2,30.1,29.95,South,183,5.0,11.0,62,0.00,,,0.00,0,WeatherCatV1.23B16,2013-11-03 07:27:00,
2013-11-03 01:28:00,42.2,30.1,29.95,South,175,9.0,11.0,62,0.00,,,0.00,0,WeatherCatV1.23B16,2013-11-03 07:28:00,
2013-11-03 01:30:00,42.0,30.3,29.94,SE,138,11.0,13.0,63,0.00,,,0.00,0,WeatherCatV1.23B16,2013-11-03 07:30:00,
2013-11-03 01:31:00,42.0,30.3,29.94,South,186,12.0,13.0,63,0.00,,,0.00,0,WeatherCatV1.23B16,2013-11-03 07:31:00,
2013-11-03 01:32:00,42.0,30.3,29.94,SSE,159,5.0,9.0,63,0.00,,,0.00,0,WeatherCatV1.23B16,2013-11-03 07:32:00,
2013-11-03 01:33:00,42.0,30.3,29.94,SSE,152,5.0,12.0,63,0.00,,,0.00,0,WeatherCatV1.23B16,2013-11-03 07:33:00,
2013-11-03 01:36:00,41.9,30.2,29.94,ESE,117,10.0,13.0,63,0.00,,,0.00,0,WeatherCatV1.23B16,2013-11-03 07:36:00,
2013-11-03 01:37:00,41.9,30.2,29.94,SSE,148,4.0,13.0,63,0.00,,,0.00,0,WeatherCatV1.23B16,2013-11-03 07:37:00,
2013-11-03 01:38:00,41.9,30.2,29.94,SE,145,4.0,11.0,63,0.00,,,0.00,0,WeatherCatV1.23B16,2013-11-03 07:38:00,
2013-11-03 01:41:00,41.9,30.2,29.94,SE,134,5.0,13.0,63,0.00,,,0.00,0,WeatherCatV1.23B16,2013-11-03 07:41:00,
2013-11-03 01:42:00,41.9,30.2,29.93,SSW,207,10.0,10.0,63,0.00,,,0.00,0,WeatherCatV1.23B16,2013-11-03 07:42:00,
2013-11-03 01:43:00,41.9,30.2,29.93,SE,144,2.0,10.0,63,0.00,,,0.00,0,WeatherCatV1.23B16,2013-11-03 07:43:00,
2013-11-03 01:46:00,41.8,30.1,29.93,SE,142,4.0,16.0,63,0.00,,,0.00,0,WeatherCatV1.23B16,2013-11-03 07:46:00,
2013-11-03 01:47:00,41.8,30.1,29.93,SSW,196,11.0,12.0,63,0.00,,,0.00,0,WeatherCatV1.23B16,2013-11-03 07:47:00,
2013-11-03 01:48:00,41.8,30.1,29.93,South,182,4.0,12.0,63,0.00,,,0.00,0,WeatherCatV1.23B16,2013-11-03 07:48:00,
2013-11-03 01:49:00,41.8,30.1,29.93,South,178,6.0,12.0,63,0.00,,,0.00,0,WeatherCatV1.23B16,2013-11-03 07:49:00,
2013-11-03 01:51:00,41.7,30.4,29.93,SE,134,3.0,13.0,64,0.00,,,0.00,0,WeatherCatV1.23B16,2013-11-03 07:51:00,
2013-11-03 01:52:00,41.7,30.4,29.93,SSW,211,11.0,14.0,64,0.00,,,0.00,0,WeatherCatV1.23B16,2013-11-03 07:52:00,
2013-11-03 01:53:00,41.7,30.4,29.93,SSE,165,14.0,19.0,64,0.00,,,0.00,0,WeatherCatV1.23B16,2013-11-03 07:53:00,
2013-11-03 01:54:00,41.7,30.4,29.93,SE,137,7.0,19.0,64,0.00,,,0.00,0,WeatherCatV1.23B16,2013-11-03 07:54:00,
2013-11-03 01:56:00,41.7,30.4,29.93,SE,140,16.0,16.0,64,0.00,,,0.00,0,WeatherCatV1.23B16,2013-11-03 07:56:00,
2013-11-03 01:57:00,41.7,30.4,29.92,South,169,10.0,16.0,64,0.00,,,0.00,0,WeatherCatV1.23B16,2013-11-03 07:57:00,
2013-11-03 01:58:00,41.7,30.4,29.93,SSW,210,11.0,16.0,64,0.00,,,0.00,0,WeatherCatV1.23B16,2013-11-03 07:58:00,
2013-11-03 01:59:00,41.6,30.3,29.93,SSE,168,10.0,14.0,64,0.00,,,0.00,0,WeatherCatV1.23B16,2013-11-03 07:59:00,
2013-11-03 02:01:00,41.6,30.3,29.92,SE,140,10.0,10.0,64,0.00,,,0.00,0,WeatherCatV1.23B16,2013-11-03 08:01:00,
2013-11-03 02:03:00,41.6,30.3,29.92,SE,129,7.0,11.0,64,0.00,,,0.00,0,WeatherCatV1.23B16,2013-11-03 08:03:00,
2013-11-03 02:04:00,41.6,30.3,29.92,SSW,209,14.0,14.0,64,0.00,,,0.00,0,WeatherCatV1.23B16,2013-11-03 08:04:00,
2013-11-03 02:05:00,41.5,30.2,29.92,SE,140,5.0,15.0,64,0.00,,,0.00,0,WeatherCatV1.23B16,2013-11-03 08:05:00,
2013-11-03 02:06:00,41.5,30.2,29.92,South,171,7.0,14.0,64,0.00,,,0.00,0,WeatherCatV1.23B16,2013-11-03 08:06:00,
2013-11-03 02:08:00,41.5,30.2,29.93,SSE,164,10.0,14.0,64,0.00,,,0.00,0,WeatherCatV1.23B16,2013-11-03 08:08:00,
2013-11-03 02:09:00,41.5,30.2,29.92,SSW,205,14.0,15.0,64,0.00,,,0.00,0,WeatherCatV1.23B16,2013-11-03 08:09:00,
2013-11-03 02:10:00,41.6,30.3,29.92,South,172,3.0,16.0,64,0.00,,,0.00,0,WeatherCatV1.23B16,2013-11-03 08:10:00,
2013-11-03 02:11:00,41.6,30.3,29.92,SSW,195,3.0,10.0,64,0.00,,,0.00,0,WeatherCatV1.23B16,2013-11-03 08:11:00,
2013-11-03 02:13:00,41.6,30.3,29.92,SE,130,10.0,13.0,64,0.00,,,0.00,0,WeatherCatV1.23B16,2013-11-03 08:13:00,
2013-11-03 02:14:00,41.5,30.2,29.92,SSE,157,4.0,16.0,64,0.00,,,0.00,0,WeatherCatV1.23B16,2013-11-03 08:14:00,
2013-11-03 02:15:00,41.5,30.2,29.92,SSW,192,21.0,21.0,64,0.00,,,0.00,0,WeatherCatV1.23B16,2013-11-03 08:15:00,
2013-11-03 02:17:00,41.7,30.4,29.92,South,171,6.0,21.0,64,0.00,,,0.00,0,WeatherCatV1.23B16,2013-11-03 08:17:00,
2013-11-03 02:18:00,41.7,30.4,29.92,SE,126,12.0,17.0,64,0.00,,,0.00,0,WeatherCatV1.23B16,2013-11-03 08:18:00,
2013-11-03 02:19:00,41.7,30.4,29.92,South,188,9.0,12.0,64,0.00,,,0.00,0,WeatherCatV1.23B16,2013-11-03 08:19:00,
2013-11-03 02:20:00,41.7,30.4,29.92,SE,124,9.0,14.0,64,0.00,,,0.00,0,WeatherCatV1.23B16,2013-11-03 08:20:00,
2013-11-03 02:22:00,41.7,30.4,29.92,SSE,158,4.0,7.0,64,0.00,,,0.00,0,WeatherCatV1.23B16,2013-11-03 08:22:00,
2013-11-03 02:23:00,41.6,30.3,29.91,SSW,194,9.0,13.0,64,0.00,,,0.00,0,WeatherCatV1.23B16,2013-11-03 08:23:00,
2013-11-03 02:24:00,41.7,30.4,29.91,South,171,12.0,13.0,64,0.00,,,0.00,0,WeatherCatV1.23B16,2013-11-03 08:24:00,
2013-11-03 02:25:00,41.7,30.4,29.91,South,180,15.0,15.0,64,0.00,,,0.00,0,WeatherCatV1.23B16,2013-11-03 08:25:00,
2013-11-03 02:26:00,41.8,30.5,29.91,SSW,196,7.0,15.0,64,0.00,,,0.00,0,WeatherCatV1.23B16,2013-11-03 08:26:00,
2013-11-03 02:27:00,41.8,30.5,29.91,SSE,161,9.0,15.0,64,0.00,,,0.00,0,WeatherCatV1.23B16,2013-11-03 08:27:00,
2013-11-03 02:28:00,41.8,30.5,29.91,SSE,149,4.0,16.0,64,0.00,,,0.00,0,WeatherCatV1.23B16,2013-11-03 08:28:00,
2013-11-03 02:29:00,41.8,30.1,29.91,South,182,4.0,16.0,63,0.00,,,0.00,0,WeatherCatV1.23B16,2013-11-03 08:29:00,
2013-11-03 02:30:00,41.8,30.1,29.91,SSE,152,7.0,15.0,63,0.00,,,0.00,0,WeatherCatV1.23B16,2013-11-03 08:30:00,
2013-11-03 02:31:00,41.8,30.5,29.91,SSE,149,6.0,13.0,64,0.00,,,0.00,0,WeatherCatV1.23B16,2013-11-03 08:31:00,
2013-11-03 02:32:00,41.8,30.5,29.91,ESE,123,9.0,17.0,64,0.00,,,0.00,0,WeatherCatV1.23B16,2013-11-03 08:32:00,
2013-11-03 02:34:00,41.7,30.4,29.91,SSW,192,13.0,13.0,64,0.00,,,0.00,0,WeatherCatV1.23B16,2013-11-03 08:34:00,
2013-11-03 02:35:00,41.8,30.5,29.91,SSE,153,6.0,15.0,64,0.00,,,0.00,0,WeatherCatV1.23B16,2013-11-03 08:35:00,
2013-11-03 02:36:00,41.7,30.4,29.91,South,175,4.0,15.0,64,0.00,,,0.00,0,WeatherCatV1.23B16,2013-11-03 08:36:00,
2013-11-03 02:37:00,41.7,30.4,29.91,South,190,6.0,10.0,64,0.00,,,0.00,0,WeatherCatV1.23B16,2013-11-03 08:37:00,
2013-11-03 02:39:00,41.7,30.4,29.90,South,180,5.0,16.0,64,0.00,,,0.00,0,WeatherCatV1.23B16,2013-11-03 08:39:00,
2013-11-03 02:40:00,41.7,30.4,29.90,SSW,192,6.0,11.0,64,0.00,,,0.00,0,WeatherCatV1.23B16,2013-11-03 08:40:00,
2013-11-03 02:41:00,41.7,30.4,29.90,SSE,165,3.0,14.0,64,0.00,,,0.00,0,WeatherCatV1.23B16,2013-11-03 08:41:00,
2013-11-03 02:42:00,41.6,30.3,29.90,SSE,167,3.0,15.0,64,0.00,,,0.00,0,WeatherCatV1.23B16,2013-11-03 08:42:00,
2013-11-03 02:44:00,41.7,30.4,29.90,ESE,117,9.0,16.0,64,0.00,,,0.00,0,WeatherCatV1.23B16,2013-11-03 08:44:00,
2013-11-03 02:45:00,41.7,30.4,29.90,SE,138,5.0,16.0,64,0.00,,,0.00,0,WeatherCatV1.23B16,2013-11-03 08:45:00,
2013-11-03 02:46:00,41.7,30.4,29.90,SSE,152,16.0,16.0,64,0.00,,,0.00,0,WeatherCatV1.23B16,2013-11-03 08:46:00,
2013-11-03 02:47:00,41.8,30.5,29.90,SSW,192,13.0,16.0,64,0.00,,,0.00,0,WeatherCatV1.23B16,2013-11-03 08:47:00,
2013-11-03 02:49:00,41.8,30.5,29.90,SSE,148,5.0,12.0,64,0.00,,,0.00,0,WeatherCatV1.23B16,2013-11-03 08:49:00,
2013-11-03 02:50:00,41.8,30.5,29.90,SSE,159,9.0,14.0,64,0.00,,,0.00,0,WeatherCatV1.23B16,2013-11-03 08:50:00,
2013-11-03 02:51:00,41.8,30.5,29.90,South,184,13.0,14.0,64,0.00,,,0.00,0,WeatherCatV1.23B16,2013-11-03 08:51:00,
2013-11-03 02:52:00,41.8,30.5,29.90,SSE,159,7.0,15.0,64,0.00,,,0.00,0,WeatherCatV1.23B16,2013-11-03 08:52:00,
2013-11-03 02:54:00,41.7,30.4,29.90,SSW,195,4.0,17.0,64,0.00,,,0.00,0,WeatherCatV1.23B16,2013-11-03 08:54:00,
2013-11-03 02:55:00,41.6,30.3,29.90,SSE,164,4.0,12.0,64,0.00,,,0.00,0,WeatherCatV1.23B16,2013-11-03 08:55:00,
2013-11-03 02:56:00,41.6,30.3,29.90,SE,131,5.0,12.0,64,0.00,,,0.00,0,WeatherCatV1.23B16,2013-11-03 08:56:00,
2013-11-03 02:57:00,41.6,30.3,29.90,SE,133,13.0,16.0,64,0.00,,,0.00,0,WeatherCatV1.23B16,2013-11-03 08:57:00,
2013-11-03 02:58:00,41.6,30.3,29.90,SE,125,11.0,16.0,64,0.00,,,0.00,0,WeatherCatV1.23B16,2013-11-03 08:58:00,
2013-11-03 02:59:00,41.6,30.3,29.90,SSE,167,5.0,11.0,64,0.00,,,0.00,0,WeatherCatV1.23B16,2013-11-03 08:59:00,
2013-11-03 03:00:00,41.6,30.3,29.90,South,184,9.0,15.0,64,0.00,,,0.00,0,WeatherCatV1.23B16,2013-11-03 09:00:00,
2013-11-03 03:01:00,41.5,30.2,29.90,SSE,152,5.0,15.0,64,0.00,,,0.00,0,WeatherCatV1.23B16,2013-11-03 09:01:00,
2013-11-03 03:03:00,41.6,30.3,29.89,SSE,163,7.0,13.0,64,0.00,,,0.00,0,WeatherCatV1.23B16,2013-11-03 09:03:00,
2013-11-03 03:05:00,41.5,30.2,29.89,South,175,5.0,14.0,64,0.00,,,0.00,0,WeatherCatV1.23B16,2013-11-03 09:05:00,
2013-11-03 03:06:00,41.5,30.2,29.89,SE,136,5.0,16.0,64,0.00,,,0.00,0,WeatherCatV1.23B16,2013-11-03 09:06:00,
2013-11-03 03:07:00,41.5,30.2,29.89,SE,135,10.0,16.0,64,0.00,,,0.00,0,WeatherCatV1.23B16,2013-11-03 09:07:00,
2013-11-03 03:08:00,41.5,30.2,29.89,ESE,121,12.0,17.0,64,0.00,,,0.00,0,WeatherCatV1.23B16,2013-11-03 09:08:00,
2013-11-03 03:10:00,41.5,30.2,29.89,South,172,6.0,17.0,64,0.00,,,0.00,0,WeatherCatV1.23B16,2013-11-03 09:10:00,
2013-11-03 03:11:00,41.6,30.3,29.89,ESE,118,6.0,10.0,64,0.00,,,0.00,0,WeatherCatV1.23B16,2013-11-03 09:11:00,
2013-11-03 03:12:00,41.5,30.2,29.89,ESE,121,5.0,11.0,64,0.00,,,0.00,0,WeatherCatV1.23B16,2013-11-03 09:12:00,
2013-11-03 03:13:00,41.5,30.2,29.89,SSE,163,6.0,12.0,64,0.00,,,0.00,0,WeatherCatV1.23B16,2013-11-03 09:13:00,
2013-11-03 03:16:00,41.6,30.3,29.89,SE,136,11.0,17.0,64,0.00,,,0.00,0,WeatherCatV1.23B16,2013-11-03 09:16:00,
2013-11-03 03:17:00,41.7,30.4,29.89,SE,140,1.0,17.0,64,0.00,,,0.00,0,WeatherCatV1.23B16,2013-11-03 09:17:00,
2013-11-03 03:18:00,41.7,30.4,29.88,SSE,167,3.0,20.0,64,0.00,,,0.00,0,WeatherCatV1.23B16,2013-11-03 09:18:00,
2013-11-03 03:19:00,41.8,30.5,29.89,South,171,10.0,20.0,64,0.00,,,0.00,0,WeatherCatV1.23B16,2013-11-03 09:19:00,
2013-11-03 03:21:00,41.9,30.6,29.88,South,173,13.0,13.0,64,0.00,,,0.00,0,WeatherCatV1.23B16,2013-11-03 09:21:00,
2013-11-03 03:22:00,41.9,30.6,29.88,SE,140,10.0,15.0,64,0.00,,,0.00,0,WeatherCatV1.23B16,2013-11-03 09:22:00,
2013-11-03 03:23:00,41.9,30.6,29.88,SE,136,3.0,15.0,64,0.00,,,0.00,0,WeatherCatV1.23B16,2013-11-03 09:23:00,
2013-11-03 03:24:00,42.0,30.7,29.88,SSE,159,5.0,16.0,64,0.00,,,0.00,0,WeatherCatV1.23B16,2013-11-03 09:24:00,
2013-11-03 03:26:00,42.0,30.3,29.88,East,88,4.0,15.0,63,0.00,,,0.00,0,WeatherCatV1.23B16,2013-11-03 09:26:00,
2013-11-03 03:27:00,42.1,30.4,29.88,South,173,6.0,14.0,63,0.00,,,0.00,0,WeatherCatV1.23B16,2013-11-03 09:27:00,
2013-11-03 03:28:00,42.1,30.4,29.88,SSE,152,12.0,17.0,63,0.00,,,0.00,0,WeatherCatV1.23B16,2013-11-03 09:28:00,
2013-11-03 03:29:00,42.2,30.5,29.88,SSE,167,12.0,17.0,63,0.00,,,0.00,0,WeatherCatV1.23B16,2013-11-03 09:29:00,
2013-11-03 03:31:00,42.4,30.7,29.88,South,172,11.0,19.0,63,0.00,,,0.00,0,WeatherCatV1.23B16,2013-11-03 09:31:00,
2013-11-03 03:32:00,42.4,30.7,29.88,South,179,6.0,19.0,63,0.00,,,0.00,0,WeatherCatV1.23B16,2013-11-03 09:32:00,
2013-11-03 03:33:00,42.5,30.4,29.88,SSE,159,6.0,22.0,62,0.00,,,0.00,0,WeatherCatV1.23B16,2013-11-03 09:33:00,
2013-11-03 03:34:00,42.6,30.5,29.87,SSE,159,14.0,22.0,62,0.00,,,0.00,0,WeatherCatV1.23B16,2013-11-03 09:34:00,
2013-11-03 03:36:00,42.7,30.6,29.87,SSE,161,11.0,26.0,62,0.00,,,0.00,0,WeatherCatV1.23B16,2013-11-03 09:36:00,
2013-11-03 03:37:00,42.7,30.6,29.87,SE,138,4.0,14.0,62,0.00,,,0.00,0,WeatherCatV1.23B16,2013-11-03 09:37:00,
2013-11-03 03:38:00,42.8,30.7,29.87,SSE,150,6.0,12.0,62,0.00,,,0.00,0,WeatherCatV1.23B16,2013-11-03 09:38:00,
2013-11-03 03:40:00,42.7,30.6,29.87,SE,126,4.0,10.0,62,0.00,,,0.00,0,WeatherCatV1.23B16,2013-11-03 09:40:00,
2013-11-03 03:41:00,42.7,30.6,29.87,SSE,153,6.0,13.0,62,0.00,,,0.00,0,WeatherCatV1.23B16,2013-11-03 09:41:00,
2013-11-03 03:42:00,42.6,30.5,29.87,SE,131,4.0,13.0,62,0.00,,,0.00,0,WeatherCatV1.23B16,2013-11-03 09:42:00,
2013-11-03 03:43:00,42.5,30.4,29.87,SSE,161,7.0,10.0,62,0.00,,,0.00,0,WeatherCatV1.23B16,2013-11-03 09:43:00,
2013-11-03 03:44:00,42.5,30.4,29.87,SE,144,5.0,17.0,62,0.00,,,0.00,0,WeatherCatV1.23B16,2013-11-03 09:44:00,
2013-11-03 03:45:00,42.5,30.4,29.87,SSW,194,9.0,20.0,62,0.00,,,0.00,0,WeatherCatV1.23B16,2013-11-03 09:45:00,
2013-11-03 03:46:00,42.5,30.4,29.87,South,190,14.0,20.0,62,0.00,,,0.00,0,WeatherCatV1.23B16,2013-11-03 09:46:00,
2013-11-03 03:47:00,42.4,30.3,29.87,SSE,155,6.0,14.0,62,0.00,,,0.00,0,WeatherCatV1.23B16,2013-11-03 09:47:00,
2013-11-03 03:48:00,42.4,30.3,29.87,SSE,163,5.0,13.0,62,0.00,,,0.00,0,WeatherCatV1.23B16,2013-11-03 09:48:00,
2013-11-03 03:49:00,42.4,30.3,29.87,South,179,10.0,13.0,62,0.00,,,0.00,0,WeatherCatV1.23B16,2013-11-03 09:49:00,
2013-11-03 03:51:00,42.3,30.6,29.87,SSE,167,1.0,12.0,63,0.00,,,0.00,0,WeatherCatV1.23B16,2013-11-03 09:51:00,
2013-11-03 03:52:00,42.3,30.6,29.87,South,180,2.0,13.0,63,0.00,,,0.00,0,WeatherCatV1.23B16,2013-11-03 09:52:00,
2013-11-03 03:53:00,42.2,30.5,29.87,South,170,6.0,11.0,63,0.00,,,0.00,0,WeatherCatV1.23B16,2013-11-03 09:53:00,
2013-11-03 03:54:00,42.2,30.5,29.87,SE,139,8.0,16.0,63,0.00,,,0.00,0,WeatherCatV1.23B16,2013-11-03 09:54:00,
2013-11-03 03:56:00,42.2,30.5,29.87,ESE,115,12.0,15.0,63,0.00,,,0.00,0,WeatherCatV1.23B16,2013-11-03 09:56:00,
2013-11-03 03:57:00,42.3,30.6,29.87,ESE,110,2.0,15.0,63,0.00,,,0.00,0,WeatherCatV1.23B16,2013-11-03 09:57:00,
2013-11-03 03:58:00,42.3,30.6,29.87,SE,132,3.0,14.0,63,0.00,,,0.00,0,WeatherCatV1.23B16,2013-11-03 09:58:00,
2013-11-03 03:59:00,42.3,30.6,29.87,SSE,148,5.0,11.0,63,0.00,,,0.00,0,WeatherCatV1.23B16,2013-11-03 09:59:00,
2013-11-03 04:01:00,42.2,30.5,29.87,SSW,196,14.0,18.0,63,0.00,,,0.00,0,WeatherCatV1.23B16,2013-11-03 10:01:00,
2013-11-03 04:02:00,42.3,30.6,29.87,SSE,166,6.0,18.0,63,0.00,,,0.00,0,WeatherCatV1.23B16,2013-11-03 10:02:00,
2013-11-03 04:03:00,42.3,30.6,29.87,SE,143,6.0,18.0,63,0.00,,,0.00,0,WeatherCatV1.23B16,2013-11-03 10:03:00,
2013-11-03 04:04:00,42.3,30.6,29.87,ESE,118,12.0,14.0,63,0.00,,,0.00,0,WeatherCatV1.23B16,2013-11-03 10:04:00,
2013-11-03 04:06:00,42.3,30.6,29.86,ESE,106,6.0,12.0,63,0.00,,,0.00,0,WeatherCatV1.23B16,2013-11-03 10:06:00,
2013-11-03 04:08:00,42.2,30.5,29.86,SSW,198,4.0,15.0,63,0.00,,,0.00,0,WeatherCatV1.23B16,2013-11-03 10:08:00,
2013-11-03 04:09:00,42.2,30.5,29.86,SSE,159,11.0,15.0,63,0.00,,,0.00,0,WeatherCatV1.23B16,2013-11-03 10:09:00,
2013-11-03 04:12:00,42.0,30.3,29.86,South,179,10.0,16.0,63,0.00,,,0.00,0,WeatherCatV1.23B16,2013-11-03 10:12:00,
2013-11-03 04:13:00,42.0,30.3,29.86,SE,138,5.0,16.0,63,0.00,,,0.00,0,WeatherCatV1.23B16,2013-11-03 10:13:00,
2013-11-03 04:14:00,42.0,30.3,29.86,SE,142,5.0,16.0,63,0.00,,,0.00,0,WeatherCatV1.23B16,2013-11-03 10:14:00,
2013-11-03 04:17:00,42.0,30.3,29.86,SE,136,7.0,15.0,63,0.00,,,0.00,0,WeatherCatV1.23B16,2013-11-03 10:17:00,
2013-11-03 04:18:00,42.0,30.3,29.86,ESE,110,8.0,16.0,63,0.00,,,0.00,0,WeatherCatV1.23B16,2013-11-03 10:18:00,
2013-11-03 04:19:00,42.0,30.3,29.86,SSW,205,10.0,16.0,63,0.00,,,0.00,0,WeatherCatV1.23B16,2013-11-03 10:19:00,
2013-11-03 04:22:00,42.0,30.3,29.86,SSE,147,7.0,19.0,63,0.00,,,0.00,0,WeatherCatV1.23B16,2013-11-03 10:22:00,
2013-11-03 04:23:00,41.9,30.2,29.86,SSW,196,5.0,12.0,63,0.00,,,0.00,0,WeatherCatV1.23B16,2013-11-03 10:23:00,
2013-11-03 04:24:00,41.9,30.2,29.86,ESE,115,3.0,13.0,63,0.00,,,0.00,0,WeatherCatV1.23B16,2013-11-03 10:24:00,
2013-11-03 04:27:00,41.8,30.5,29.86,South,172,5.0,18.0,64,0.00,,,0.00,0,WeatherCatV1.23B16,2013-11-03 10:27:00,
2013-11-03 04:28:00,41.8,30.5,29.86,SSW,198,8.0,18.0,64,0.00,,,0.00,0,WeatherCatV1.23B16,2013-11-03 10:28:00,
2013-11-03 04:29:00,41.8,30.5,29.86,South,181,5.0,13.0,64,0.00,,,0.00,0,WeatherCatV1.23B16,2013-11-03 10:29:00,
2013-11-03 04:30:00,41.8,30.5,29.86,SSE,159,5.0,16.0,64,0.00,,,0.00,0,WeatherCatV1.23B16,2013-11-03 10:30:00,
2013-11-03 04:33:00,41.6,30.3,29.86,South,173,3.0,13.0,64,0.00,,,0.00,0,WeatherCatV1.23B16,2013-11-03 10:33:00,
2013-11-03 04:34:00,41.6,30.3,29.86,South,172,2.0,19.0,64,0.00,,,0.00,0,WeatherCatV1.23B16,2013-11-03 10:34:00,
2013-11-03 04:35:00,41.6,30.3,29.86,SSW,200,1.0,19.0,64,0.00,,,0.00,0,WeatherCatV1.23B16,2013-11-03 10:35:00,
2013-11-03 04:38:00,41.5,30.2,29.85,SSE,167,5.0,15.0,64,0.00,,,0.00,0,WeatherCatV1.23B16,2013-11-03 10:38:00,
2013-11-03 04:39:00,41.5,30.2,29.85,SW,217,11.0,14.0,64,0.00,,,0.00,0,WeatherCatV1.23B16,2013-11-03 10:39:00,
2013-11-03 04:40:00,41.4,30.1,29.85,SSW,195,13.0,13.0,64,0.00,,,0.00,0,WeatherCatV1.23B16,2013-11-03 10:40:00,
2013-11-03 04:41:00,41.4,30.1,29.85,South,172,1.0,13.0,64,0.00,,,0.00,0,WeatherCatV1.23B16,2013-11-03 10:41:00,
2013-11-03 04:43:00,41.3,30.4,29.85,SSW,195,5.0,11.0,65,0.00,,,0.00,0,WeatherCatV1.23B16,2013-11-03 10:43:00,
2013-11-03 04:44:00,41.2,30.3,29.85,SSE,155,2.0,11.0,65,0.00,,,0.00,0,WeatherCatV1.23B16,2013-11-03 10:44:00,
2013-11-03 04:46:00,41.1,30.2,29.85,SE,138,4.0,13.0,65,0.00,,,0.00,0,WeatherCatV1.23B16,2013-11-03 10:46:00,
2013-11-03 04:48:00,41.1,30.2,29.85,SE,140,10.0,12.0,65,0.00,,,0.00,0,WeatherCatV1.23B16,2013-11-03 10:48:00,
2013-11-03 04:49:00,41.1,30.2,29.85,South,175,6.0,13.0,65,0.00,,,0.00,0,WeatherCatV1.23B16,2013-11-03 10:49:00,
2013-11-03 04:50:00,41.1,30.2,29.85,South,175,3.0,13.0,65,0.00,,,0.00,0,WeatherCatV1.23B16,2013-11-03 10:50:00,
2013-11-03 04:51:00,41.0,30.1,29.85,South,173,4.0,12.0,65,0.00,,,0.00,0,WeatherCatV1.23B16,2013-11-03 10:51:00,
2013-11-03 04:52:00,41.0,30.1,29.85,South,169,6.0,12.0,65,0.00,,,0.00,0,WeatherCatV1.23B16,2013-11-03 10:52:00,
2013-11-03 04:53:00,40.9,30.4,29.85,South,174,5.0,14.0,66,0.00,,,0.00,0,WeatherCatV1.23B16,2013-11-03 10:53:00,
2013-11-03 04:54:00,40.9,30.4,29.85,South,173,11.0,11.0,66,0.00,,,0.00,0,WeatherCatV1.23B16,2013-11-03 10:54:00,
2013-11-03 04:55:00,40.9,30.4,29.85,SE,140,11.0,11.0,66,0.00,,,0.00,0,WeatherCatV1.23B16,2013-11-03 10:55:00,
2013-11-03 04:57:00,40.8,30.3,29.85,SE,145,6.0,14.0,66,0.00,,,0.00,0,WeatherCatV1.23B16,2013-11-03 10:57:00,
2013-11-03 04:58:00,40.7,30.2,29.85,SE,136,7.0,11.0,66,0.00,,,0.00,0,WeatherCatV1.23B16,2013-11-03 10:58:00,
2013-11-03 04:59:00,40.7,30.2,29.85,SSE,148,4.0,15.0,66,0.00,,,0.00,0,WeatherCatV1.23B16,2013-11-03 10:59:00,
2013-11-03 05:00:00,40.7,30.2,29.85,SE,145,2.0,15.0,66,0.00,,,0.00,0,WeatherCatV1.23B16,2013-11-03 11:00:00,
2013-11-03 05:02:00,40.6,30.1,29.85,SE,138,11.0,15.0,66,0.00,,,0.00,0,WeatherCatV1.23B16,2013-11-03 11:02:00,
2013-11-03 05:03:00,40.6,30.1,29.85,SE,140,10.0,15.0,66,0.00,,,0.00,0,WeatherCatV1.23B16,2013-11-03 11:03:00,
2013-11-03 05:04:00,40.6,30.1,29.85,SSW,197,3.0,15.0,66,0.00,,,0.00,0,WeatherCatV1.23B16,2013-11-03 11:04:00,
2013-11-03 05:05:00,40.6,30.1,29.85,SSW,194,5.0,13.0,66,0.00,,,0.00,0,WeatherCatV1.23B16,2013-11-03 11:05:00,
2013-11-03 05:07:00,40.5,30.0,29.85,SSE,162,5.0,13.0,66,0.00,,,0.00,0,WeatherCatV1.23B16,2013-11-03 11:07:00,
2013-11-03 05:09:00,40.5,30.0,29.85,South,176,5.0,6.0,66,0.00,,,0.00,0,WeatherCatV1.23B16,2013-11-03 11:09:00,
2013-11-03 05:10:00,40.4,30.3,29.85,SE,138,2.0,13.0,67,0.00,,,0.00,0,WeatherCatV1.23B16,2013-11-03 11:10:00,
2013-11-03 05:12:00,40.3,30.2,29.85,SE,145,1.0,12.0,67,0.00,,,0.00,0,WeatherCatV1.23B16,2013-11-03 11:12:00,
2013-11-03 05:13:00,40.2,30.1,29.85,SE,139,6.0,12.0,67,0.00,,,0.00,0,WeatherCatV1.23B16,2013-11-03 11:13:00,
2013-11-03 05:14:00,40.1,30.0,29.85,ESE,119,6.0,13.0,67,0.00,,,0.00,0,WeatherCatV1.23B16,2013-11-03 11:14:00,
2013-11-03 05:15:00,40.1,30.4,29.85,SE,124,7.0,13.0,68,0.00,,,0.00,0,WeatherCatV1.23B16,2013-11-03 11:15:00,
2013-11-03 05:17:00,39.9,30.2,29.84,SSE,161,2.0,10.0,68,0.00,,,0.00,0,WeatherCatV1.23B16,2013-11-03 11:17:00,
2013-11-03 05:18:00,39.9,30.2,29.84,ESE,121,5.0,10.0,68,0.00,,,0.00,0,WeatherCatV1.23B16,2013-11-03 11:18:00,
2013-11-03 05:19:00,39.8,30.1,29.84,SSE,157,6.0,10.0,68,0.00,,,0.00,0,WeatherCatV1.23B16,2013-11-03 11:19:00,
2013-11-03 05:20:00,39.8,30.1,29.84,SSE,155,1.0,6.0,68,0.00,,,0.00,0,WeatherCatV1.23B16,2013-11-03 11:20:00,
2013-11-03 05:21:00,39.8,30.1,29.84,SE,145,7.0,7.0,68,0.00,,,0.00,0,WeatherCatV1.23B16,2013-11-03 11:21:00,
2013-11-03 05:22:00,39.7,30.0,29.84,SE,137,1.0,7.0,68,0.00,,,0.00,0,WeatherCatV1.23B16,2013-11-03 11:22:00,
2013-11-03 05:23:00,39.6,29.9,29.84,SE,135,4.0,10.0,68,0.00,,,0.00,0,WeatherCatV1.23B16,2013-11-03 11:23:00,
2013-11-03 05:24:00,39.5,29.8,29.84,SE,134,3.0,10.0,68,0.00,,,0.00,0,WeatherCatV1.23B16,2013-11-03 11:24:00,
2013-11-03 05:25:00,39.5,29.8,29.84,SE,136,2.0,6.0,68,0.00,,,0.00,0,WeatherCatV1.23B16,2013-11-03 11:25:00,
2013-11-03 05:26:00,39.5,29.8,29.84,SE,136,2.0,6.0,68,0.00,,,0.00,0,WeatherCatV1.23B16,2013-11-03 11:26:00,
2013-11-03 05:27:00,39.4,30.1,29.84,SE,138,7.0,12.0,69,0.00,,,0.00,0,WeatherCatV1.23B16,2013-11-03 11:27:00,
2013-11-03 05:28:00,39.4,30.1,29.84,SE,142,4.0,12.0,69,0.00,,,0.00,0,WeatherCatV1.23B16,2013-11-03 11:28:00,
2013-11-03 05:30:00,39.3,30.0,29.84,SSE,150,5.0,10.0,69,0.00,,,0.00,0,WeatherCatV1.23B16,2013-11-03 11:30:00,
2013-11-03 05:31:00,39.3,30.0,29.84,SSE,152,2.0,10.0,69,0.00,,,0.00,0,WeatherCatV1.23B16,2013-11-03 11:31:00,
2013-11-03 05:32:00,39.2,29.9,29.84,SE,135,9.0,14.0,69,0.00,,,0.00,0,WeatherCatV1.23B16,2013-11-03 11:32:00,
2013-11-03 05:33:00,39.3,30.0,29.83,SE,124,5.0,10.0,69,0.00,,,0.00,0,WeatherCatV1.23B16,2013-11-03 11:33:00,
2013-11-03 05:35:00,39.2,29.9,29.83,SE,136,3.0,13.0,69,0.00,,,0.00,0,WeatherCatV1.23B16,2013-11-03 11:35:00,
2013-11-03 05:36:00,39.3,30.0,29.83,SE,140,4.0,13.0,69,0.00,,,0.00,0,WeatherCatV1.23B16,2013-11-03 11:36:00,
2013-11-03 05:37:00,39.2,29.9,29.83,SSE,155,8.0,8.0,69,0.00,,,0.00,0,WeatherCatV1.23B16,2013-11-03 11:37:00,
2013-11-03 05:38:00,39.3,30.0,29.83,SE,138,2.0,12.0,69,0.00,,,0.00,0,WeatherCatV1.23B16,2013-11-03 11:38:00,
2013-11-03 05:39:00,39.3,30.0,29.84,SSE,164,3.0,12.0,69,0.00,,,0.00,0,WeatherCatV1.23B16,2013-11-03 11:39:00,
2013-11-03 05:40:00,39.3,30.0,29.83,SSE,150,10.0,11.0,69,0.00,,,0.00,0,WeatherCatV1.23B16,2013-11-03 11:40:00,
2013-11-03 05:41:00,39.4,30.1,29.83,SE,143,9.0,10.0,69,0.00,,,0.00,0,WeatherCatV1.23B16,2013-11-03 11:41:00,
2013-11-03 05:42:00,39.4,30.1,29.83,South,188,9.0,10.0,69,0.00,,,0.00,0,WeatherCatV1.23B16,2013-11-03 11:42:00,
2013-11-03 05:43:00,39.5,30.2,29.83,South,179,7.0,10.0,69,0.00,,,0.00,0,WeatherCatV1.23B16,2013-11-03 11:43:00,
2013-11-03 05:44:00,39.6,30.3,29.83,South,181,9.0,9.0,69,0.00,,,0.00,0,WeatherCatV1.23B16,2013-11-03 11:44:00,
2013-11-03 05:45:00,39.6,30.3,29.83,South,171,5.0,11.0,69,0.00,,,0.00,0,WeatherCatV1.23B16,2013-11-03 11:45:00,
2013-11-03 05:46:00,39.6,29.9,29.83,SSE,158,5.0,13.0,68,0.00,,,0.00,0,WeatherCatV1.23B16,2013-11-03 11:46:00,
2013-11-03 05:47:00,39.7,30.0,29.83,South,176,5.0,13.0,68,0.00,,,0.00,0,WeatherCatV1.23B16,2013-11-03 11:47:00,
2013-11-03 05:49:00,39.7,30.0,29.83,South,172,3.0,12.0,68,0.00,,,0.00,0,WeatherCatV1.23B16,2013-11-03 11:49:00,
2013-11-03 05:50:00,39.8,30.1,29.83,SSE,159,6.0,10.0,68,0.00,,,0.00,0,WeatherCatV1.23B16,2013-11-03 11:50:00,
2013-11-03 05:51:00,39.8,30.1,29.83,SE,143,9.0,10.0,68,0.00,,,0.00,0,WeatherCatV1.23B16,2013-11-03 11:51:00,
2013-11-03 05:53:00,39.9,30.2,29.83,SSE,155,4.0,11.0,68,0.00,,,0.00,0,WeatherCatV1.23B16,2013-11-03 11:53:00,
2013-11-03 05:54:00,39.9,30.2,29.83,SSE,157,3.0,11.0,68,0.00,,,0.00,0,WeatherCatV1.23B16,2013-11-03 11:54:00,
2013-11-03 05:55:00,40.0,29.9,29.83,South,172,6.0,12.0,67,0.00,,,0.00,0,WeatherCatV1.23B16,2013-11-03 11:55:00,
2013-11-03 05:56:00,40.0,29.9,29.83,South,172,5.0,12.0,67,0.00,,,0.00,0,WeatherCatV1.23B16,2013-11-03 11:56:00,
2013-11-03 05:58:00,40.2,30.1,29.83,SE,144,2.0,10.0,67,0.00,,,0.00,0,WeatherCatV1.23B16,2013-11-03 11:58:00,
2013-11-03 05:59:00,40.3,30.2,29.83,South,174,9.0,10.0,67,0.00,,,0.00,0,WeatherCatV1.23B16,2013-11-03 11:59:00,
2013-11-03 06:00:00,40.4,30.3,29.83,SE,132,12.0,12.0,67,0.00,,,0.00,0,WeatherCatV1.23B16,2013-11-03 12:00:00,
2013-11-03 06:01:00,40.6,30.1,29.83,SSE,153,7.0,12.0,66,0.00,,,0.00,0,WeatherCatV1.23B16,2013-11-03 12:01:00,
2013-11-03 06:03:00,41.2,30.3,29.83,ESE,113,10.0,11.0,65,0.00,,,0.00,0,WeatherCatV1.23B16,2013-11-03 12:03:00,
2013-11-03 06:05:00,41.5,30.2,29.83,SSE,153,4.0,14.0,64,0.00,,,0.00,0,WeatherCatV1.23B16,2013-11-03 12:05:00,
2013-11-03 06:06:00,41.7,30.4,29.83,South,190,6.0,16.0,64,0.00,,,0.00,0,WeatherCatV1.23B16,2013-11-03 12:06:00,
2013-11-03 06:09:00,42.6,30.5,29.83,SE,145,4.0,13.0,62,0.00,,,0.00,0,WeatherCatV1.23B16,2013-11-03 12:09:00,
2013-11-03 06:10:00,42.7,30.6,29.83,South,169,9.0,19.0,62,0.00,,,0.00,0,WeatherCatV1.23B16,2013-11-03 12:10:00,
2013-11-03 06:11:00,42.9,30.4,29.83,SE,137,11.0,19.0,61,0.00,,,0.00,0,WeatherCatV1.23B16,2013-11-03 12:11:00,
2013-11-03 06:14:00,43.2,30.3,29.82,SSE,147,11.0,17.0,60,0.00,,,0.00,0,WeatherCatV1.23B16,2013-11-03 12:14:00,
2013-11-03 06:15:00,43.3,30.4,29.83,SSE,151,6.0,16.0,60,0.00,,,0.00,0,WeatherCatV1.23B16,2013-11-03 12:15:00,
2013-11-03 06:16:00,43.3,30.4,29.82,SE,129,7.0,16.0,60,0.00,,,0.00,0,WeatherCatV1.23B16,2013-11-03 12:16:00,
2013-11-03 06:17:00,43.3,30.4,29.82,SSE,161,7.0,13.0,60,0.00,,,0.00,0,WeatherCatV1.23B16,2013-11-03 12:17:00,
2013-11-03 06:20:00,43.3,30.4,29.82,SE,132,12.0,14.0,60,0.00,,,0.00,0,WeatherCatV1.23B16,2013-11-03 12:20:00,
2013-11-03 06:21:00,43.3,30.4,29.82,South,181,9.0,20.0,60,0.00,,,0.00,0,WeatherCatV1.23B16,2013-11-03 12:21:00,
2013-11-03 06:22:00,43.3,30.4,29.82,SSW,203,9.0,20.0,60,0.00,,,0.00,0,WeatherCatV1.23B16,2013-11-03 12:22:00,
2013-11-03 06:23:00,43.3,30.4,29.82,SSE,167,9.0,20.0,60,0.00,,,0.00,0,WeatherCatV1.23B16,2013-11-03 12:23:00,
2013-11-03 06:25:00,43.4,30.0,29.82,SE,146,10.0,22.0,59,0.00,,,0.00,0,WeatherCatV1.23B16,2013-11-03 12:25:00,
2013-11-03 06:26:00,43.3,30.0,29.82,SSW,192,13.0,13.0,59,0.00,,,0.00,0,WeatherCatV1.23B16,2013-11-03 12:26:00,
2013-11-03 06:27:00,43.3,30.0,29.82,South,176,6.0,13.0,59,0.00,,,0.00,0,WeatherCatV1.23B16,2013-11-03 12:27:00,
2013-11-03 06:28:00,43.3,30.4,29.82,SW,219,13.0,13.0,60,0.00,,,0.00,0,WeatherCatV1.23B16,2013-11-03 12:28:00,
2013-11-03 06:30:00,43.2,30.3,29.82,SSW,205,16.0,16.0,60,0.00,,,0.00,0,WeatherCatV1.23B16,2013-11-03 12:30:00,
2013-11-03 06:31:00,43.2,30.3,29.81,SE,145,5.0,16.0,60,0.00,,,0.00,0,WeatherCatV1.23B16,2013-11-03 12:31:00,
2013-11-03 06:32:00,43.1,30.2,29.82,South,187,9.0,16.0,60,0.00,,,0.00,0,WeatherCatV1.23B16,2013-11-03 12:32:00,
2013-11-03 06:34:00,43.2,30.3,29.81,SSE,158,4.0,23.0,60,0.00,,,0.00,0,WeatherCatV1.23B16,2013-11-03 12:34:00,
2013-11-03 06:36:00,43.1,30.2,29.81,South,173,5.0,16.0,60,0.00,,,0.00,0,WeatherCatV1.23B16,2013-11-03 12:36:00,
2013-11-03 06:37:00,43.1,30.2,29.81,SSW,203,11.0,16.0,60,0.00,,,0.00,0,WeatherCatV1.23B16,2013-11-03 12:37:00,
2013-11-03 06:39:00,43.0,30.1,29.81,SSW,196,13.0,18.0,60,0.00,,,0.00,0,WeatherCatV1.23B16,2013-11-03 12:39:00,
2013-11-03 06:41:00,42.9,30.0,29.81,South,170,11.0,22.0,60,0.00,,,0.00,0,WeatherCatV1.23B16,2013-11-03 12:41:00,
2013-11-03 06:42:00,42.9,30.0,29.81,South,171,15.0,15.0,60,0.00,,,0.00,0,WeatherCatV1.23B16,2013-11-03 12:42:00,
2013-11-03 06:44:00,42.9,30.0,29.81,South,186,5.0,15.0,60,0.00,,,0.00,0,WeatherCatV1.23B16,2013-11-03 12:44:00,
2013-11-03 06:46:00,42.8,30.3,29.81,SE,141,2.0,17.0,61,0.00,,,0.00,0,WeatherCatV1.23B16,2013-11-03 12:46:00,
2013-11-03 06:47:00,42.7,30.2,29.81,SE,139,6.0,17.0,61,0.00,,,0.00,0,WeatherCatV1.23B16,2013-11-03 12:47:00,
2013-11-03 06:48:00,42.7,30.2,29.81,SW,220,10.0,17.0,61,0.00,,,0.00,0,WeatherCatV1.23B16,2013-11-03 12:48:00,
2013-11-03 06:50:00,42.6,30.1,29.81,SE,126,7.0,15.0,61,0.00,,,0.00,0,WeatherCatV1.23B16,2013-11-03 12:50:00,
2013-11-03 06:51:00,42.6,30.1,29.81,SSW,213,6.0,15.0,61,0.00,,,0.00,0,WeatherCatV1.23B16,2013-11-03 12:51:00,
2013-11-03 06:52:00,42.6,30.1,29.81,SE,132,4.0,17.0,61,0.00,,,0.00,0,WeatherCatV1.23B16,2013-11-03 12:52:00,
2013-11-03 06:53:00,42.5,30.0,29.81,SE,133,10.0,17.0,61,0.00,,,0.00,0,WeatherCatV1.23B16,2013-11-03 12:53:00,
2013-11-03 06:56:00,42.5,30.0,29.80,SE,138,5.0,17.0,61,0.00,,,0.00,0,WeatherCatV1.23B16,2013-11-03 12:56:00,
2013-11-03 06:57:00,42.5,30.0,29.80,South,183,6.0,17.0,61,0.00,,,0.00,0,WeatherCatV1.23B16,2013-11-03 12:57:00,
2013-11-03 06:58:00,42.4,29.9,29.80,South,173,13.0,18.0,61,0.00,,,0.00,0,WeatherCatV1.23B16,2013-11-03 12:58:00,
2013-11-03 06:59:00,42.4,29.9,29.80,SSW,207,5.0,18.0,61,0.00,,,0.00,0,WeatherCatV1.23B16,2013-11-03 12:59:00,
2013-11-03 07:01:00,42.4,29.9,29.80,SE,144,5.0,18.0,61,0.00,,,0.00,0,WeatherCatV1.23B16,2013-11-03 13:01:00,
2013-11-03 07:02:00,42.3,30.2,29.80,ESE,115,7.0,18.0,62,0.00,,,0.00,0,WeatherCatV1.23B16,2013-11-03 13:02:00,
2013-11-03 07:03:00,42.3,30.2,29.80,SSE,161,9.0,18.0,62,0.00,,,0.00,5,WeatherCatV1.23B16,2013-11-03 13:03:00,
2013-11-03 07:04:00,42.3,30.2,29.80,ESE,123,2.0,16.0,62,0.00,,,0.00,5,WeatherCatV1.23B16,2013-11-03 13:04:00,
2013-11-03 07:06:00,42.2,30.1,29.80,South,175,6.0,18.0,62,0.00,,,0.00,7,WeatherCatV1.23B16,2013-11-03 13:06:00,
2013-11-03 07:07:00,42.2,30.1,29.80,SSE,156,11.0,18.0,62,0.00,,,0.00,7,WeatherCatV1.23B16,2013-11-03 13:07:00,
2013-11-03 07:08:00,42.2,30.1,29.80,SE,140,3.0,18.0,62,0.00,,,0.00,7,WeatherCatV1.23B16,2013-11-03 13:08:00,
2013-11-03 07:09:00,42.2,30.1,29.80,SSE,153,7.0,17.0,62,0.00,,,0.00,7,WeatherCatV1.23B16,2013-11-03 13:09:00,
2013-11-03 07:11:00,42.1,30.0,29.79,South,182,4.0,19.0,62,0.00,,,0.00,9,WeatherCatV1.23B16,2013-11-03 13:11:00,
2013-11-03 07:12:00,42.0,29.9,29.79,SSW,200,9.0,13.0,62,0.00,,,0.00,11,WeatherCatV1.23B16,2013-11-03 13:12:00,
2013-11-03 07:13:00,42.1,30.0,29.79,SSE,162,7.0,13.0,62,0.00,,,0.00,11,WeatherCatV1.23B16,2013-11-03 13:13:00,
2013-11-03 07:14:00,42.0,29.9,29.79,South,182,2.0,22.0,62,0.00,,,0.00,11,WeatherCatV1.23B16,2013-11-03 13:14:00,
2013-11-03 07:16:00,42.0,30.3,29.79,SSW,205,10.0,14.0,63,0.00,,,0.00,12,WeatherCatV1.23B16,2013-11-03 13:16:00,
2013-11-03 07:18:00,42.0,30.3,29.79,South,183,6.0,14.0,63,0.00,,,0.00,12,WeatherCatV1.23B16,2013-11-03 13:18:00,
2013-11-03 07:19:00,41.9,30.2,29.78,South,183,9.0,9.0,63,0.00,,,0.00,14,WeatherCatV1.23B16,2013-11-03 13:19:00,
2013-11-03 07:21:00,41.9,30.2,29.79,SE,133,5.0,17.0,63,0.00,,,0.00,16,WeatherCatV1.23B16,2013-11-03 13:21:00,
2013-11-03 07:23:00,41.9,30.2,29.78,SE,134,12.0,17.0,63,0.00,,,0.00,18,WeatherCatV1.23B16,2013-11-03 13:23:00,
2013-11-03 07:24:00,41.9,30.2,29.78,SSE,160,10.0,14.0,63,0.00,,,0.00,18,WeatherCatV1.23B16,2013-11-03 13:24:00,
2013-11-03 07:25:00,41.9,30.2,29.78,SSE,153,8.0,15.0,63,0.00,,,0.00,19,WeatherCatV1.23B16,2013-11-03 13:25:00,
2013-11-03 07:26:00,41.9,30.2,29.78,SE,138,11.0,15.0,63,0.00,,,0.00,19,WeatherCatV1.23B16,2013-11-03 13:26:00,
2013-11-03 07:28:00,41.9,30.2,29.78,South,190,3.0,18.0,63,0.00,,,0.00,21,WeatherCatV1.23B16,2013-11-03 13:28:00,
2013-11-03 07:29:00,41.9,30.2,29.78,South,187,8.0,18.0,63,0.00,,,0.00,21,WeatherCatV1.23B16,2013-11-03 13:29:00,
2013-11-03 07:31:00,41.9,30.2,29.78,South,171,5.0,17.0,63,0.00,,,0.00,23,WeatherCatV1.23B16,2013-11-03 13:31:00,
2013-11-03 07:32:00,42.0,30.3,29.78,SE,132,4.0,17.0,63,0.00,,,0.00,30,WeatherCatV1.23B16,2013-11-03 13:32:00,
2013-11-03 07:33:00,42.0,30.3,29.78,SSE,155,11.0,11.0,63,0.00,,,0.00,30,WeatherCatV1.23B16,2013-11-03 13:33:00,
2013-11-03 07:34:00,42.0,30.3,29.78,SSE,148,7.0,16.0,63,0.00,,,0.00,32,WeatherCatV1.23B16,2013-11-03 13:34:00,
2013-11-03 07:36:00,42.1,30.4,29.78,ESE,114,11.0,16.0,63,0.00,,,0.00,35,WeatherCatV1.23B16,2013-11-03 13:36:00,
2013-11-03 07:37:00,42.2,30.5,29.78,SE,140,13.0,16.0,63,0.00,,,0.00,37,WeatherCatV1.23B16,2013-11-03 13:37:00,
2013-11-03 07:38:00,42.2,30.5,29.78,SSE,163,8.0,15.0,63,0.00,,,0.00,40,WeatherCatV1.23B16,2013-11-03 13:38:00,
2013-11-03 07:39:00,42.3,30.6,29.78,SSE,162,12.0,14.0,63,0.00,,,0.00,42,WeatherCatV1.23B16,2013-11-03 13:39:00,
2013-11-03 07:41:00,42.4,30.7,29.78,SE,146,12.0,16.0,63,0.00,,,0.00,47,WeatherCatV1.23B16,2013-11-03 13:41:00,
2013-11-03 07:42:00,42.3,30.6,29.78,SSE,159,5.0,16.0,63,0.00,,,0.00,51,WeatherCatV1.23B16,2013-11-03 13:42:00,
2013-11-03 07:43:00,42.4,30.7,29.78,SE,136,2.0,11.0,63,0.00,,,0.00,54,WeatherCatV1.23B16,2013-11-03 13:43:00,
2013-11-03 07:44:00,42.4,30.7,29.78,SE,133,14.0,16.0,63,0.00,,,0.00,56,WeatherCatV1.23B16,2013-11-03 13:44:00,
2013-11-03 07:45:00,42.4,30.7,29.78,SSW,202,9.0,16.0,63,0.00,,,0.00,60,WeatherCatV1.23B16,2013-11-03 13:45:00,
2013-11-03 07:46:00,42.5,30.8,29.78,SSE,152,5.0,14.0,63,0.00,,,0.00,67,WeatherCatV1.23B16,2013-11-03 13:46:00,
2013-11-03 07:47:00,42.5,30.8,29.78,South,175,3.0,11.0,63,0.00,,,0.00,70,WeatherCatV1.23B16,2013-11-03 13:47:00,
2013-11-03 07:49:00,42.6,30.9,29.77,SE,138,20.0,20.0,63,0.00,,,0.00,74,WeatherCatV1.23B16,2013-11-03 13:49:00,
2013-11-03 07:50:00,42.7,31.0,29.78,SSE,165,6.0,20.0,63,0.00,,,0.00,81,WeatherCatV1.23B16,2013-11-03 13:50:00,
2013-11-03 07:52:00,42.8,31.1,29.78,SE,126,6.0,17.0,63,0.00,,,0.00,83,WeatherCatV1.23B16,2013-11-03 13:52:00,
2013-11-03 07:54:00,42.9,31.2,29.78,South,184,8.0,14.0,63,0.00,,,0.00,93,WeatherCatV1.23B16,2013-11-03 13:54:00,
2013-11-03 07:56:00,43.0,30.9,29.77,ESE,113,5.0,12.0,62,0.00,,,0.00,98,WeatherCatV1.23B16,2013-11-03 13:56:00,
2013-11-03 07:57:00,43.1,31.0,29.77,SSE,163,9.0,12.0,62,0.00,,,0.00,100,WeatherCatV1.23B16,2013-11-03 13:57:00,
2013-11-03 07:58:00,43.1,31.0,29.77,East,98,6.0,13.0,62,0.00,,,0.00,104,WeatherCatV1.23B16,2013-11-03 13:58:00,
2013-11-03 07:59:00,43.2,31.1,29.77,South,191,5.0,19.0,62,0.00,,,0.00,105,WeatherCatV1.23B16,2013-11-03 13:59:00,
2013-11-03 08:01:00,43.3,31.2,29.78,SE,139,8.0,16.0,62,0.00,,,0.00,107,WeatherCatV1.23B16,2013-11-03 14:01:00,
2013-11-03 08:02:00,43.4,31.3,29.78,SSW,204,11.0,14.0,62,0.00,,,0.00,97,WeatherCatV1.23B16,2013-11-03 14:02:00,
2013-11-03 08:03:00,43.4,31.3,29.78,SSW,212,13.0,14.0,62,0.00,,,0.00,90,WeatherCatV1.23B16,2013-11-03 14:03:00,
2013-11-03 08:04:00,43.4,31.3,29.77,South,182,6.0,14.0,62,0.00,,,0.00,91,WeatherCatV1.23B16,2013-11-03 14:04:00,
2013-11-03 08:06:00,43.4,31.3,29.78,SE,126,5.0,13.0,62,0.00,,,0.00,98,WeatherCatV1.23B16,2013-11-03 14:06:00,
2013-11-03 08:07:00,43.4,31.3,29.78,SSE,167,7.0,13.0,62,0.00,,,0.00,102,WeatherCatV1.23B16,2013-11-03 14:07:00,
2013-11-03 08:08:00,43.4,31.3,29.78,SSW,198,2.0,12.0,62,0.00,,,0.00,109,WeatherCatV1.23B16,2013-11-03 14:08:00,
2013-11-03 08:09:00,43.4,31.3,29.78,ESE,123,4.0,16.0,62,0.00,,,0.00,111,WeatherCatV1.23B16,2013-11-03 14:09:00,
2013-11-03 08:10:00,43.5,31.0,29.78,SE,136,9.0,22.0,61,0.00,,,0.00,114,WeatherCatV1.23B16,2013-11-03 14:10:00,
2013-11-03 08:11:00,43.6,31.5,29.78,South,188,5.0,22.0,62,0.00,,,0.00,151,WeatherCatV1.23B16,2013-11-03 14:11:00,
2013-11-03 08:13:00,43.6,31.5,29.78,South,188,10.0,22.0,62,0.00,,,0.00,130,WeatherCatV1.23B16,2013-11-03 14:13:00,
2013-11-03 08:14:00,43.7,31.5,29.78,ESE,122,4.0,14.0,62,0.00,,,0.00,111,WeatherCatV1.23B16,2013-11-03 14:14:00,
2013-11-03 08:16:00,43.8,31.2,29.78,SSW,201,7.0,17.0,61,0.00,,,0.00,100,WeatherCatV1.23B16,2013-11-03 14:16:00,
2013-11-03 08:18:00,43.8,31.6,29.78,SSE,155,11.0,18.0,62,0.00,,,0.00,107,WeatherCatV1.23B16,2013-11-03 14:18:00,
2013-11-03 08:19:00,43.8,31.2,29.78,South,190,9.0,15.0,61,0.00,,,0.00,120,WeatherCatV1.23B16,2013-11-03 14:19:00,
2013-11-03 08:20:00,43.9,31.3,29.78,South,169,4.0,13.0,61,0.00,,,0.00,127,WeatherCatV1.23B16,2013-11-03 14:20:00,
2013-11-03 08:21:00,43.9,31.3,29.78,South,188,3.0,13.0,61,0.00,,,0.00,148,WeatherCatV1.23B16,2013-11-03 14:21:00,
2013-11-03 08:23:00,44.1,31.5,29.78,SE,140,12.0,17.0,61,0.00,,,0.00,165,WeatherCatV1.23B16,2013-11-03 14:23:00,
2013-11-03 08:24:00,44.3,31.7,29.78,SSE,149,9.0,17.0,61,0.00,,,0.00,206,WeatherCatV1.23B16,2013-11-03 14:24:00,
2013-11-03 08:25:00,44.4,31.8,29.78,SSE,153,11.0,17.0,61,0.00,,,0.00,188,WeatherCatV1.23B16,2013-11-03 14:25:00,
2013-11-03 08:26:00,44.6,32.0,29.78,SW,219,10.0,16.0,61,0.00,,,0.00,199,WeatherCatV1.23B16,2013-11-03 14:26:00,
2013-11-03 08:28:00,44.7,31.7,29.78,South,186,10.0,18.0,60,0.00,,,0.00,216,WeatherCatV1.23B16,2013-11-03 14:28:00,
2013-11-03 08:29:00,45.0,32.0,29.78,SSE,149,5.0,18.0,60,0.00,,,0.00,225,WeatherCatV1.23B16,2013-11-03 14:29:00,
2013-11-03 08:30:00,45.0,32.0,29.77,South,174,5.0,18.0,60,0.00,,,0.00,225,WeatherCatV1.23B16,2013-11-03 14:30:00,
2013-11-03 08:31:00,45.1,32.0,29.78,South,191,3.0,11.0,60,0.00,,,0.00,241,WeatherCatV1.23B16,2013-11-03 14:31:00,
2013-11-03 08:32:00,45.2,32.2,29.78,South,169,3.0,7.0,60,0.00,,,0.00,255,WeatherCatV1.23B16,2013-11-03 14:32:00,
2013-11-03 08:33:00,45.5,32.4,29.77,South,181,18.0,18.0,60,0.00,,,0.00,248,WeatherCatV1.23B16,2013-11-03 14:33:00,
2013-11-03 08:35:00,45.6,32.5,29.77,SSW,202,8.0,18.0,60,0.00,,,0.00,207,WeatherCatV1.23B16,2013-11-03 14:35:00,
2013-11-03 08:36:00,45.8,32.7,29.77,South,175,5.0,12.0,60,0.00,,,0.00,199,WeatherCatV1.23B16,2013-11-03 14:36:00,
2013-11-03 08:37:00,45.8,32.3,29.77,SW,218,17.0,17.0,59,0.00,,,0.00,186,WeatherCatV1.23B16,2013-11-03 14:37:00,
2013-11-03 08:39:00,45.8,32.3,29.77,South,190,12.0,18.0,59,0.00,,,0.00,192,WeatherCatV1.23B16,2013-11-03 14:39:00,
2013-11-03 08:40:00,45.8,32.3,29.77,SSW,192,4.0,21.0,59,0.00,,,0.00,193,WeatherCatV1.23B16,2013-11-03 14:40:00,
2013-11-03 08:41:00,45.8,32.3,29.77,SSW,202,3.0,21.0,59,0.00,,,0.00,171,WeatherCatV1.23B16,2013-11-03 14:41:00,
2013-11-03 08:42:00,45.9,32.4,29.77,SSW,192,8.0,17.0,59,0.00,,,0.00,158,WeatherCatV1.23B16,2013-11-03 14:42:00,
2013-11-03 08:44:00,45.9,32.4,29.77,South,180,13.0,16.0,59,0.00,,,0.00,171,WeatherCatV1.23B16,2013-11-03 14:44:00,
2013-11-03 08:45:00,45.9,32.4,29.76,SSE,161,11.0,15.0,59,0.00,,,0.00,193,WeatherCatV1.23B16,2013-11-03 14:45:00,
2013-11-03 08:46:00,45.9,32.0,29.76,SW,219,15.0,25.0,58,0.00,,,0.00,188,WeatherCatV1.23B16,2013-11-03 14:46:00,
2013-11-03 08:47:00,45.9,32.0,29.76,South,182,6.0,25.0,58,0.00,,,0.00,186,WeatherCatV1.23B16,2013-11-03 14:47:00,
2013-11-03 08:49:00,46.0,32.5,29.77,SSE,162,6.0,12.0,59,0.00,,,0.00,172,WeatherCatV1.23B16,2013-11-03 14:49:00,
2013-11-03 08:50:00,46.0,32.5,29.77,SE,146,5.0,13.0,59,0.00,,,0.00,172,WeatherCatV1.23B16,2013-11-03 14:50:00,
2013-11-03 08:51:00,46.0,32.5,29.76,SE,146,4.0,13.0,59,0.00,,,0.00,167,WeatherCatV1.23B16,2013-11-03 14:51:00,
2013-11-03 08:52:00,46.1,33.0,29.76,SSW,195,5.0,15.0,60,0.00,,,0.00,167,WeatherCatV1.23B16,2013-11-03 14:52:00,
2013-11-03 08:54:00,46.1,32.2,29.76,SW,223,9.0,20.0,58,0.00,,,0.00,190,WeatherCatV1.23B16,2013-11-03 14:54:00,
2013-11-03 08:55:00,46.1,32.2,29.76,SSW,195,10.0,20.0,58,0.00,,,0.00,200,WeatherCatV1.23B16,2013-11-03 14:55:00,
2013-11-03 08:56:00,46.2,32.7,29.76,South,170,5.0,14.0,59,0.00,,,0.00,193,WeatherCatV1.23B16,2013-11-03 14:56:00,
2013-11-03 08:57:00,46.3,32.8,29.75,ESE,122,4.0,13.0,59,0.00,,,0.00,193,WeatherCatV1.23B16,2013-11-03 14:57:00,
2013-11-03 08:59:00,46.5,32.5,29.75,South,173,5.0,19.0,58,0.00,,,0.00,181,WeatherCatV1.23B16,2013-11-03 14:59:00,
2013-11-03 09:00:00,46.5,32.5,29.75,SSE,165,6.0,17.0,58,0.00,,,0.00,181,WeatherCatV1.23B16,2013-11-03 15:00:00,
2013-11-03 09:01:00,46.5,33.0,29.75,SSW,213,8.0,17.0,59,0.00,,,0.00,181,WeatherCatV1.23B16,2013-11-03 15:01:00,
2013-11-03 09:02:00,46.5,33.0,29.75,South,174,6.0,17.0,59,0.00,,,0.00,190,WeatherCatV1.23B16,2013-11-03 15:02:00,
2013-11-03 09:05:00,46.6,32.6,29.75,SE,132,5.0,21.0,58,0.00,,,0.00,223,WeatherCatV1.23B16,2013-11-03 15:05:00,
2013-11-03 09:06:00,46.8,32.8,29.75,SSE,148,7.0,20.0,58,0.00,,,0.00,265,WeatherCatV1.23B16,2013-11-03 15:06:00,
2013-11-03 09:07:00,46.9,32.9,29.75,SW,223,11.0,20.0,58,0.00,,,0.00,288,WeatherCatV1.23B16,2013-11-03 15:07:00,
2013-11-03 09:08:00,47.0,33.0,29.75,SE,132,5.0,17.0,58,0.00,,,0.00,332,WeatherCatV1.23B16,2013-11-03 15:08:00,
2013-11-03 09:10:00,47.3,32.8,29.75,SSE,150,9.0,21.0,57,0.00,,,0.00,378,WeatherCatV1.23B16,2013-11-03 15:10:00,
2013-11-03 09:11:00,47.4,32.9,29.75,South,173,25.0,25.0,57,0.00,,,0.00,345,WeatherCatV1.23B16,2013-11-03 15:11:00,
2013-11-03 09:12:00,47.6,33.1,29.75,South,179,6.0,25.0,57,0.00,,,0.00,316,WeatherCatV1.23B16,2013-11-03 15:12:00,
2013-11-03 09:13:00,47.6,33.1,29.75,East,101,4.0,16.0,57,0.00,,,0.00,287,WeatherCatV1.23B16,2013-11-03 15:13:00,
2013-11-03 09:15:00,47.8,33.3,29.75,SSW,206,17.0,19.0,57,0.00,,,0.00,230,WeatherCatV1.23B16,2013-11-03 15:15:00,
2013-11-03 09:16:00,47.9,33.4,29.75,South,179,5.0,21.0,57,0.00,,,0.00,278,WeatherCatV1.23B16,2013-11-03 15:16:00,
2013-11-03 09:17:00,47.9,33.0,29.75,SW,225,16.0,23.0,56,0.00,,,0.00,299,WeatherCatV1.23B16,2013-11-03 15:17:00,
2013-11-03 09:18:00,47.9,33.0,29.75,SSE,150,11.0,23.0,56,0.00,,,0.00,299,WeatherCatV1.23B16,2013-11-03 15:18:00,
2013-11-03 09:19:00,48.0,33.1,29.75,SSW,207,16.0,22.0,56,0.00,,,0.00,318,WeatherCatV1.23B16,2013-11-03 15:19:00,
2013-11-03 09:20:00,48.1,33.2,29.75,SSW,210,28.0,28.0,56,0.00,,,0.00,339,WeatherCatV1.23B16,2013-11-03 15:20:00,
2013-11-03 09:21:00,48.2,33.2,29.74,SW,222,22.0,28.0,56,0.00,,,0.00,339,WeatherCatV1.23B16,2013-11-03 15:21:00,
2013-11-03 09:22:00,48.2,32.8,29.74,SSW,207,26.0,28.0,55,0.00,,,0.00,313,WeatherCatV1.23B16,2013-11-03 15:22:00,
2013-11-03 09:23:00,48.2,32.8,29.74,South,173,9.0,26.0,55,0.00,,,0.00,241,WeatherCatV1.23B16,2013-11-03 15:23:00,
2013-11-03 09:24:00,48.2,33.2,29.74,SSE,161,2.0,16.0,56,0.00,,,0.00,297,WeatherCatV1.23B16,2013-11-03 15:24:00,
2013-11-03 09:26:00,48.4,33.4,29.74,South,189,5.0,15.0,56,0.00,,,0.00,383,WeatherCatV1.23B16,2013-11-03 15:26:00,
2013-11-03 09:27:00,48.5,33.5,29.74,SE,140,10.0,15.0,56,0.00,,,0.00,371,WeatherCatV1.23B16,2013-11-03 15:27:00,
2013-11-03 09:28:00,48.6,33.2,29.74,SSW,210,14.0,18.0,55,0.00,,,0.00,371,WeatherCatV1.23B16,2013-11-03 15:28:00,
2013-11-03 09:29:00,48.8,33.4,29.74,South,188,7.0,17.0,55,0.00,,,0.00,396,WeatherCatV1.23B16,2013-11-03 15:29:00,
2013-11-03 09:31:00,49.0,33.5,29.74,SE,127,15.0,21.0,55,0.00,,,0.00,371,WeatherCatV1.23B16,2013-11-03 15:31:00,
2013-11-03 09:32:00,49.0,33.5,29.74,SW,225,18.0,21.0,55,0.00,,,0.00,299,WeatherCatV1.23B16,2013-11-03 15:32:00,
2013-11-03 09:33:00,49.0,33.5,29.73,South,184,3.0,18.0,55,0.00,,,0.00,236,WeatherCatV1.23B16,2013-11-03 15:33:00,
2013-11-03 09:34:00,49.0,33.5,29.73,South,188,5.0,18.0,55,0.00,,,0.00,236,WeatherCatV1.23B16,2013-11-03 15:34:00,
2013-11-03 09:36:00,49.0,33.5,29.73,ESE,106,11.0,18.0,55,0.00,,,0.00,199,WeatherCatV1.23B16,2013-11-03 15:36:00,
2013-11-03 09:37:00,49.0,33.1,29.73,SE,133,7.0,18.0,54,0.00,,,0.00,199,WeatherCatV1.23B16,2013-11-03 15:37:00,
2013-11-03 09:39:00,48.7,32.8,29.73,SSW,210,9.0,21.0,54,0.00,,,0.00,200,WeatherCatV1.23B16,2013-11-03 15:39:00,
2013-11-03 09:40:00,48.6,32.7,29.73,SW,226,10.0,21.0,54,0.00,,,0.00,202,WeatherCatV1.23B16,2013-11-03 15:40:00,
2013-11-03 09:41:00,48.5,33.1,29.73,SSW,200,3.0,8.0,55,0.00,,,0.00,232,WeatherCatV1.23B16,2013-11-03 15:41:00,
2013-11-03 09:42:00,48.5,33.1,29.73,SE,144,4.0,10.0,55,0.00,,,0.00,239,WeatherCatV1.23B16,2013-11-03 15:42:00,
2013-11-03 09:44:00,48.6,33.2,29.72,SSE,160,7.0,23.0,55,0.00,,,0.00,267,WeatherCatV1.23B16,2013-11-03 15:44:00,
2013-11-03 09:45:00,48.6,33.2,29.73,SSW,198,3.0,23.0,55,0.00,,,0.00,283,WeatherCatV1.23B16,2013-11-03 15:45:00,
2013-11-03 09:47:00,48.7,33.3,29.73,SSW,196,6.0,23.0,55,0.00,,,0.00,309,WeatherCatV1.23B16,2013-11-03 15:47:00,
2013-11-03 09:49:00,48.8,33.4,29.73,SSE,165,10.0,18.0,55,0.00,,,0.00,330,WeatherCatV1.23B16,2013-11-03 15:49:00,
2013-11-03 09:50:00,48.9,33.5,29.72,South,169,9.0,19.0,55,0.00,,,0.00,311,WeatherCatV1.23B16,2013-11-03 15:50:00,
2013-11-03 09:51:00,49.0,33.5,29.73,South,182,5.0,19.0,55,0.00,,,0.00,288,WeatherCatV1.23B16,2013-11-03 15:51:00,
2013-11-03 09:52:00,49.0,33.5,29.72,SSE,159,6.0,13.0,55,0.00,,,0.00,255,WeatherCatV1.23B16,2013-11-03 15:52:00,
2013-11-03 09:55:00,49.0,33.5,29.73,South,182,15.0,15.0,55,0.00,,,0.00,178,WeatherCatV1.23B16,2013-11-03 15:55:00,
2013-11-03 09:56:00,49.0,33.1,29.72,SSW,200,20.0,20.0,54,0.00,,,0.00,192,WeatherCatV1.23B16,2013-11-03 15:56:00,
2013-11-03 09:57:00,48.9,33.0,29.72,South,190,19.0,23.0,54,0.00,,,0.00,227,WeatherCatV1.23B16,2013-11-03 15:57:00,
2013-11-03 10:01:00,48.9,33.5,29.72,SE,142,10.0,19.0,55,0.00,,,0.00,357,WeatherCatV1.23B16,2013-11-03 16:01:00,
2013-11-03 10:02:00,49.1,33.6,29.72,South,184,6.0,12.0,55,0.00,,,0.00,369,WeatherCatV1.23B16,2013-11-03 16:02:00,
2013-11-03 10:06:00,49.4,33.5,29.72,SSW,192,5.0,19.0,54,0.00,,,0.00,373,WeatherCatV1.23B16,2013-11-03 16:06:00,
2013-11-03 10:07:00,49.5,33.5,29.72,SSE,159,10.0,19.0,54,0.00,,,0.00,378,WeatherCatV1.23B16,2013-11-03 16:07:00,
2013-11-03 10:11:00,49.9,33.9,29.72,South,175,5.0,17.0,54,0.00,,,0.00,401,WeatherCatV1.23B16,2013-11-03 16:11:00,
2013-11-03 10:12:00,50.0,33.5,29.72,SSE,167,6.0,19.0,53,0.00,,,0.00,373,WeatherCatV1.23B16,2013-11-03 16:12:00,
2013-11-03 10:13:00,50.0,33.5,29.72,SSE,157,12.0,19.0,53,0.00,,,0.00,350,WeatherCatV1.23B16,2013-11-03 16:13:00,
2013-11-03 10:16:00,50.1,33.6,29.72,SSE,168,12.0,18.0,53,0.00,,,0.00,306,WeatherCatV1.23B16,2013-11-03 16:16:00,
2013-11-03 10:17:00,50.1,33.6,29.72,SSW,203,11.0,19.0,53,0.00,,,0.00,301,WeatherCatV1.23B16,2013-11-03 16:17:00,
2013-11-03 10:18:00,50.1,33.6,29.72,SSW,196,10.0,19.0,53,0.00,,,0.00,294,WeatherCatV1.23B16,2013-11-03 16:18:00,
2013-11-03 10:21:00,50.2,33.7,29.72,South,188,22.0,22.0,53,0.00,,,0.00,257,WeatherCatV1.23B16,2013-11-03 16:21:00,
2013-11-03 10:22:00,50.1,33.6,29.72,South,190,11.0,22.0,53,0.00,,,0.00,257,WeatherCatV1.23B16,2013-11-03 16:22:00,
2013-11-03 10:23:00,50.1,33.6,29.72,South,186,5.0,15.0,53,0.00,,,0.00,260,WeatherCatV1.23B16,2013-11-03 16:23:00,
2013-11-03 10:26:00,50.4,34.4,29.71,SSE,155,6.0,20.0,54,0.00,,,0.00,257,WeatherCatV1.23B16,2013-11-03 16:26:00,
2013-11-03 10:27:00,50.4,33.9,29.71,ESE,114,4.0,25.0,53,0.00,,,0.00,253,WeatherCatV1.23B16,2013-11-03 16:27:00,
2013-11-03 10:28:00,50.5,34.0,29.71,SSE,164,15.0,25.0,53,0.00,,,0.00,257,WeatherCatV1.23B16,2013-11-03 16:28:00,
2013-11-03 10:31:00,50.6,34.1,29.71,South,188,13.0,20.0,53,0.00,,,0.00,271,WeatherCatV1.23B16,2013-11-03 16:31:00,
2013-11-03 10:33:00,50.7,34.2,29.71,SE,144,12.0,20.0,53,0.00,,,0.00,267,WeatherCatV1.23B16,2013-11-03 16:33:00,
2013-11-03 10:36:00,51.0,34.5,29.71,SSW,207,4.0,18.0,53,0.00,,,0.00,255,WeatherCatV1.23B16,2013-11-03 16:36:00,
2013-11-03 10:37:00,51.0,34.5,29.70,SSE,165,14.0,18.0,53,0.00,,,0.00,258,WeatherCatV1.23B16,2013-11-03 16:37:00,
2013-11-03 10:38:00,51.1,34.1,29.70,SE,142,7.0,28.0,52,0.00,,,0.00,265,WeatherCatV1.23B16,2013-11-03 16:38:00,
2013-11-03 10:39:00,51.0,34.0,29.70,South,177,12.0,28.0,52,0.00,,,0.00,272,WeatherCatV1.23B16,2013-11-03 16:39:00,
2013-11-03 10:42:00,51.3,34.3,29.70,SSE,167,6.0,17.0,52,0.00,,,0.00,287,WeatherCatV1.23B16,2013-11-03 16:42:00,
2013-11-03 10:43:00,51.3,34.8,29.70,SSE,161,3.0,12.0,53,0.00,,,0.00,297,WeatherCatV1.23B16,2013-11-03 16:43:00,
2013-11-03 10:44:00,51.4,34.8,29.70,South,185,11.0,16.0,53,0.00,,,0.00,297,WeatherCatV1.23B16,2013-11-03 16:44:00,
2013-11-03 10:47:00,51.7,34.7,29.70,SSW,210,15.0,32.0,52,0.00,,,0.00,274,WeatherCatV1.23B16,2013-11-03 16:47:00,
2013-11-03 10:48:00,51.7,34.2,29.70,South,178,5.0,23.0,51,0.00,,,0.00,264,WeatherCatV1.23B16,2013-11-03 16:48:00,
2013-11-03 10:49:00,51.7,34.7,29.70,SSE,161,9.0,17.0,52,0.00,,,0.00,264,WeatherCatV1.23B16,2013-11-03 16:49:00,
2013-11-03 10:53:00,52.2,35.1,29.70,SSW,200,10.0,18.0,52,0.00,,,0.00,364,WeatherCatV1.23B16,2013-11-03 16:53:00,
2013-11-03 10:54:00,52.2,35.1,29.70,South,172,10.0,18.0,52,0.00,,,0.00,364,WeatherCatV1.23B16,2013-11-03 16:54:00,
2013-11-03 10:59:00,52.9,35.3,29.70,South,180,11.0,23.0,51,0.00,,,0.00,390,WeatherCatV1.23B16,2013-11-03 16:59:00,
2013-11-03 11:00:00,53.1,35.5,29.70,SSW,211,9.0,23.0,51,0.00,,,0.00,376,WeatherCatV1.23B16,2013-11-03 17:00:00,
2013-11-03 11:04:00,53.6,34.9,29.70,SSE,164,8.0,25.0,49,0.00,,,0.00,392,WeatherCatV1.23B16,2013-11-03 17:04:00,
2013-11-03 11:05:00,53.6,34.9,29.70,SSW,195,18.0,25.0,49,0.00,,,0.00,309,WeatherCatV1.23B16,2013-11-03 17:05:00,
2013-11-03 11:09:00,53.9,35.2,29.70,South,174,4.0,24.0,49,0.00,,,0.00,318,WeatherCatV1.23B16,2013-11-03 17:09:00,
2013-11-03 11:10:00,53.9,35.2,29.69,ESE,120,6.0,26.0,49,0.00,,,0.00,318,WeatherCatV1.23B16,2013-11-03 17:10:00,
2013-11-03 11:14:00,53.8,35.1,29.69,SSE,161,5.0,24.0,49,0.00,,,0.00,364,WeatherCatV1.23B16,2013-11-03 17:14:00,
2013-11-03 11:15:00,53.9,35.2,29.69,SW,216,10.0,24.0,49,0.00,,,0.00,364,WeatherCatV1.23B16,2013-11-03 17:15:00,
2013-11-03 11:19:00,54.2,35.5,29.69,South,179,7.0,15.0,49,0.00,,,0.00,294,WeatherCatV1.23B16,2013-11-03 17:19:00,
2013-11-03 11:20:00,54.2,35.5,29.69,SSW,204,19.0,19.0,49,0.00,,,0.00,294,WeatherCatV1.23B16,2013-11-03 17:20:00,
2013-11-03 11:21:00,54.2,35.5,29.69,ESE,116,9.0,19.0,49,0.00,,,0.00,315,WeatherCatV1.23B16,2013-11-03 17:21:00,
2013-11-03 11:24:00,54.4,35.6,29.68,South,184,16.0,21.0,49,0.00,,,0.00,304,WeatherCatV1.23B16,2013-11-03 17:24:00,
2013-11-03 11:25:00,54.4,35.6,29.68,SE,145,11.0,16.0,49,0.00,,,0.00,302,WeatherCatV1.23B16,2013-11-03 17:25:00,
2013-11-03 11:26:00,54.4,35.6,29.68,SSE,149,8.0,17.0,49,0.00,,,0.00,302,WeatherCatV1.23B16,2013-11-03 17:26:00,
2013-11-03 11:29:00,54.7,35.9,29.68,South,190,10.0,13.0,49,0.00,,,0.00,469,WeatherCatV1.23B16,2013-11-03 17:29:00,
2013-11-03 11:30:00,54.8,36.0,29.67,SSE,164,8.0,21.0,49,0.00,,,0.00,469,WeatherCatV1.23B16,2013-11-03 17:30:00,
2013-11-03 11:31:00,55.0,36.2,29.68,South,176,4.0,21.0,49,0.00,,,0.00,469,WeatherCatV1.23B16,2013-11-03 17:31:00,
2013-11-03 11:34:00,55.6,36.2,29.67,South,172,9.0,17.0,48,0.00,,,0.00,443,WeatherCatV1.23B16,2013-11-03 17:34:00,
2013-11-03 11:35:00,55.7,36.3,29.67,SSE,158,3.0,17.0,48,0.00,,,0.00,443,WeatherCatV1.23B16,2013-11-03 17:35:00,
2013-11-03 11:36:00,55.8,36.9,29.67,South,171,5.0,14.0,49,0.00,,,0.00,410,WeatherCatV1.23B16,2013-11-03 17:36:00,
2013-11-03 11:39:00,56.1,36.2,29.67,West,264,10.0,16.0,47,0.00,,,0.00,445,WeatherCatV1.23B16,2013-11-03 17:39:00,
2013-11-03 11:40:00,56.1,36.2,29.67,SSW,211,12.0,25.0,47,0.00,,,0.00,454,WeatherCatV1.23B16,2013-11-03 17:40:00,
2013-11-03 11:41:00,56.2,36.2,29.66,SSE,164,10.0,25.0,47,0.00,,,0.00,404,WeatherCatV1.23B16,2013-11-03 17:41:00,
2013-11-03 11:44:00,56.0,35.5,29.66,SSE,153,8.0,19.0,46,0.00,,,0.00,376,WeatherCatV1.23B16,2013-11-03 17:44:00,
2013-11-03 11:45:00,56.0,36.1,29.66,ESE,123,14.0,19.0,47,0.00,,,0.00,374,WeatherCatV1.23B16,2013-11-03 17:45:00,
2013-11-03 11:46:00,56.0,35.5,29.66,SSE,156,9.0,19.0,46,0.00,,,0.00,413,WeatherCatV1.23B16,2013-11-03 17:46:00,
2013-11-03 11:47:00,56.0,35.5,29.66,SSE,147,10.0,19.0,46,0.00,,,0.00,413,WeatherCatV1.23B16,2013-11-03 17:47:00,
2013-11-03 11:49:00,56.2,35.7,29.66,South,188,10.0,28.0,46,0.00,,,0.00,443,WeatherCatV1.23B16,2013-11-03 17:49:00,
2013-11-03 11:51:00,56.3,36.3,29.66,SSE,147,10.0,16.0,47,0.00,,,0.00,496,WeatherCatV1.23B16,2013-11-03 17:51:00,
2013-11-03 11:52:00,56.5,37.0,29.66,South,191,17.0,17.0,48,0.00,,,0.00,496,WeatherCatV1.23B16,2013-11-03 17:52:00,
2013-11-03 11:53:00,56.7,36.2,29.66,SSE,168,8.0,23.0,46,0.00,,,0.00,594,WeatherCatV1.23B16,2013-11-03 17:53:00,
2013-11-03 11:55:00,57.0,36.4,29.66,South,172,5.0,13.0,46,0.00,,,0.00,396,WeatherCatV1.23B16,2013-11-03 17:55:00,
2013-11-03 11:56:00,57.1,36.5,29.66,SSE,161,17.0,17.0,46,0.00,,,0.00,357,WeatherCatV1.23B16,2013-11-03 17:56:00,
2013-11-03 11:57:00,57.1,36.5,29.66,South,182,22.0,24.0,46,0.00,,,0.00,353,WeatherCatV1.23B16,2013-11-03 17:57:00,
2013-11-03 11:58:00,57.0,35.9,29.66,SE,135,14.0,24.0,45,0.00,,,0.00,341,WeatherCatV1.23B16,2013-11-03 17:58:00,
2013-11-03 12:00:00,56.8,35.7,29.66,SW,221,13.0,23.0,45,0.00,,,0.00,318,WeatherCatV1.23B16,2013-11-03 18:00:00,
2013-11-03 12:01:00,56.8,36.2,29.66,ESE,112,15.0,24.0,46,0.00,,,0.00,345,WeatherCatV1.23B16,2013-11-03 18:01:00,
2013-11-03 12:02:00,56.6,36.1,29.66,South,180,15.0,24.0,46,0.00,,,0.00,330,WeatherCatV1.23B16,2013-11-03 18:02:00,
2013-11-03 12:03:00,56.6,36.1,29.66,South,184,10.0,25.0,46,0.00,,,0.00,330,WeatherCatV1.23B16,2013-11-03 18:03:00,
2013-11-03 12:05:00,56.5,36.0,29.66,South,176,5.0,24.0,46,0.00,,,0.00,313,WeatherCatV1.23B16,2013-11-03 18:05:00,
2013-11-03 12:06:00,56.4,35.9,29.66,SSW,199,10.0,20.0,46,0.00,,,0.00,315,WeatherCatV1.23B16,2013-11-03 18:06:00,
2013-11-03 12:07:00,56.4,35.9,29.65,SSW,198,5.0,28.0,46,0.00,,,0.00,315,WeatherCatV1.23B16,2013-11-03 18:07:00,
2013-11-03 12:08:00,56.4,35.9,29.65,South,190,21.0,28.0,46,0.00,,,0.00,316,WeatherCatV1.23B16,2013-11-03 18:08:00,
2013-11-03 12:10:00,56.4,36.4,29.65,ESE,102,22.0,26.0,47,0.00,,,0.00,316,WeatherCatV1.23B16,2013-11-03 18:10:00,
2013-11-03 12:11:00,56.3,35.8,29.65,South,186,23.0,31.0,46,0.00,,,0.00,315,WeatherCatV1.23B16,2013-11-03 18:11:00,
2013-11-03 12:13:00,56.3,36.3,29.65,South,171,23.0,31.0,47,0.00,,,0.00,315,WeatherCatV1.23B16,2013-11-03 18:13:00,
2013-11-03 12:14:00,56.3,35.8,29.65,South,186,12.0,23.0,46,0.00,,,0.00,302,WeatherCatV1.23B16,2013-11-03 18:14:00,
2013-11-03 12:15:00,56.3,36.3,29.64,South,178,15.0,25.0,47,0.00,,,0.00,297,WeatherCatV1.23B16,2013-11-03 18:15:00,
2013-11-03 12:16:00,56.3,35.8,29.65,SW,220,7.0,29.0,46,0.00,,,0.00,295,WeatherCatV1.23B16,2013-11-03 18:16:00,
2013-11-03 12:18:00,56.3,35.8,29.64,SSW,195,15.0,23.0,46,0.00,,,0.00,297,WeatherCatV1.23B16,2013-11-03 18:18:00,
2013-11-03 12:19:00,56.3,35.8,29.64,South,189,16.0,23.0,46,0.00,,,0.00,311,WeatherCatV1.23B16,2013-11-03 18:19:00,
2013-11-03 12:20:00,56.3,36.3,29.64,SW,221,33.0,33.0,47,0.00,,,0.00,316,WeatherCatV1.23B16,2013-11-03 18:20:00,
2013-11-03 12:21:00,56.3,35.8,29.64,South,182,9.0,33.0,46,0.00,,,0.00,316,WeatherCatV1.23B16,2013-11-03 18:21:00,
2013-11-03 12:23:00,56.2,36.2,29.64,SSW,203,12.0,17.0,47,0.00,,,0.00,283,WeatherCatV1.23B16,2013-11-03 18:23:00,
2013-11-03 12:24:00,56.2,36.2,29.64,SSW,194,8.0,17.0,47,0.00,,,0.00,297,WeatherCatV1.23B16,2013-11-03 18:24:00,
2013-11-03 12:25:00,56.3,36.3,29.64,SSW,206,5.0,17.0,47,0.00,,,0.00,304,WeatherCatV1.23B16,2013-11-03 18:25:00,
2013-11-03 12:26:00,56.3,36.3,29.63,SW,214,17.0,28.0,47,0.00,,,0.00,292,WeatherCatV1.23B16,2013-11-03 18:26:00,
2013-11-03 12:28:00,56.3,36.3,29.63,SSE,167,11.0,28.0,47,0.00,,,0.00,288,WeatherCatV1.23B16,2013-11-03 18:28:00,
2013-11-03 12:30:00,56.2,36.2,29.63,SSE,158,15.0,29.0,47,0.00,,,0.00,295,WeatherCatV1.23B16,2013-11-03 18:30:00,
2013-11-03 12:31:00,56.3,36.3,29.63,South,185,13.0,29.0,47,0.00,,,0.00,285,WeatherCatV1.23B16,2013-11-03 18:31:00,
2013-11-03 12:33:00,56.3,36.3,29.63,SSW,199,13.0,21.0,47,0.00,,,0.00,292,WeatherCatV1.23B16,2013-11-03 18:33:00,
2013-11-03 12:35:00,56.3,36.3,29.63,South,190,6.0,26.0,47,0.00,,,0.00,288,WeatherCatV1.23B16,2013-11-03 18:35:00,
2013-11-03 12:36:00,56.3,36.3,29.63,South,182,14.0,15.0,47,0.00,,,0.00,285,WeatherCatV1.23B16,2013-11-03 18:36:00,
2013-11-03 12:37:00,56.4,36.4,29.62,SSE,168,13.0,23.0,47,0.00,,,0.00,287,WeatherCatV1.23B16,2013-11-03 18:37:00,
2013-11-03 12:38:00,56.5,36.5,29.62,SSE,164,18.0,23.0,47,0.00,,,0.00,290,WeatherCatV1.23B16,2013-11-03 18:38:00,
2013-11-03 12:40:00,56.5,36.5,29.62,South,180,22.0,30.0,47,0.00,,,0.00,295,WeatherCatV1.23B16,2013-11-03 18:40:00,
2013-11-03 12:41:00,56.5,36.0,29.62,South,184,9.0,30.0,46,0.00,,,0.00,292,WeatherCatV1.23B16,2013-11-03 18:41:00,
2013-11-03 12:42:00,56.5,36.0,29.63,SSE,163,5.0,22.0,46,0.00,,,0.00,292,WeatherCatV1.23B16,2013-11-03 18:42:00,
2013-11-03 12:43:00,56.5,36.5,29.62,SSE,157,13.0,25.0,47,0.00,,,0.00,288,WeatherCatV1.23B16,2013-11-03 18:43:00,
2013-11-03 12:45:00,56.6,36.6,29.62,WSW,245,9.0,29.0,47,0.00,,,0.00,264,WeatherCatV1.23B16,2013-11-03 18:45:00,
2013-11-03 12:46:00,56.6,36.6,29.62,South,180,7.0,29.0,47,0.00,,,0.00,264,WeatherCatV1.23B16,2013-11-03 18:46:00,
2013-11-03 12:47:00,56.6,36.6,29.62,ESE,114,9.0,23.0,47,0.00,,,0.00,253,WeatherCatV1.23B16,2013-11-03 18:47:00,
2013-11-03 12:49:00,56.7,36.7,29.62,South,186,11.0,19.0,47,0.00,,,0.00,264,WeatherCatV1.23B16,2013-11-03 18:49:00,
2013-11-03 12:51:00,56.7,36.7,29.62,South,185,6.0,18.0,47,0.00,,,0.00,255,WeatherCatV1.23B16,2013-11-03 18:51:00,
2013-11-03 12:52:00,56.7,36.7,29.62,South,171,8.0,22.0,47,0.00,,,0.00,255,WeatherCatV1.23B16,2013-11-03 18:52:00,
2013-11-03 12:54:00,56.7,36.7,29.62,South,190,9.0,22.0,47,0.00,,,0.00,258,WeatherCatV1.23B16,2013-11-03 18:54:00,
2013-11-03 12:56:00,56.8,36.8,29.62,SSW,197,12.0,21.0,47,0.00,,,0.00,258,WeatherCatV1.23B16,2013-11-03 18:56:00,
2013-11-03 12:57:00,56.8,36.8,29.62,SSW,192,11.0,22.0,47,0.00,,,0.00,271,WeatherCatV1.23B16,2013-11-03 18:57:00,
2013-11-03 12:58:00,56.8,36.8,29.62,SSE,164,8.0,22.0,47,0.00,,,0.00,267,WeatherCatV1.23B16,2013-11-03 18:58:00,
2013-11-03 12:59:00,56.8,36.8,29.61,South,172,8.0,21.0,47,0.00,,,0.00,269,WeatherCatV1.23B16,2013-11-03 18:59:00,
2013-11-03 13:01:00,56.9,36.3,29.62,SE,138,4.0,27.0,46,0.00,,,0.00,272,WeatherCatV1.23B16,2013-11-03 19:01:00,
2013-11-03 13:02:00,56.9,36.9,29.62,SSE,164,7.0,12.0,47,0.00,,,0.00,272,WeatherCatV1.23B16,2013-11-03 19:02:00,
2013-11-03 13:03:00,56.9,36.9,29.62,SSW,196,9.0,12.0,47,0.00,,,0.00,271,WeatherCatV1.23B16,2013-11-03 19:03:00,
2013-11-03 13:04:00,57.0,37.0,29.61,SE,146,15.0,19.0,47,0.00,,,0.00,265,WeatherCatV1.23B16,2013-11-03 19:04:00,
2013-11-03 13:06:00,57.0,37.0,29.61,SSE,165,7.0,29.0,47,0.00,,,0.00,258,WeatherCatV1.23B16,2013-11-03 19:06:00,
2013-11-03 13:07:00,57.0,36.4,29.61,SE,132,14.0,29.0,46,0.00,,,0.00,258,WeatherCatV1.23B16,2013-11-03 19:07:00,
2013-11-03 13:08:00,57.0,37.0,29.61,SSE,150,18.0,29.0,47,0.00,,,0.00,257,WeatherCatV1.23B16,2013-11-03 19:08:00,
2013-11-03 13:10:00,57.1,37.1,29.61,South,169,9.0,27.0,47,0.00,,,0.00,258,WeatherCatV1.23B16,2013-11-03 19:10:00,
2013-11-03 13:11:00,57.1,36.5,29.62,South,182,7.0,27.0,46,0.00,,,0.00,269,WeatherCatV1.23B16,2013-11-03 19:11:00,
2013-11-03 13:12:00,57.1,36.5,29.61,SSW,211,17.0,25.0,46,0.00,,,0.00,274,WeatherCatV1.23B16,2013-11-03 19:12:00,
2013-11-03 13:13:00,57.1,36.5,29.62,South,175,12.0,25.0,46,0.00,,,0.00,283,WeatherCatV1.23B16,2013-11-03 19:13:00,
2013-11-03 13:14:00,57.2,37.2,29.62,SSW,198,12.0,25.0,47,0.00,,,0.00,287,WeatherCatV1.23B16,2013-11-03 19:14:00,
2013-11-03 13:15:00,57.2,36.6,29.61,SE,130,12.0,17.0,46,0.00,,,0.00,306,WeatherCatV1.23B16,2013-11-03 19:15:00,
2013-11-03 13:16:00,57.3,36.7,29.62,South,184,12.0,20.0,46,0.00,,,0.00,322,WeatherCatV1.23B16,2013-11-03 19:16:00,
2013-11-03 13:17:00,57.3,36.7,29.61,South,187,6.0,20.0,46,0.00,,,0.00,299,WeatherCatV1.23B16,2013-11-03 19:17:00,
2013-11-03 13:18:00,57.3,37.2,29.61,ESE,117,16.0,16.0,47,0.00,,,0.00,299,WeatherCatV1.23B16,2013-11-03 19:18:00,
2013-11-03 13:19:00,57.3,36.7,29.61,SW,227,10.0,17.0,46,0.00,,,0.00,308,WeatherCatV1.23B16,2013-11-03 19:19:00,
2013-11-03 13:20:00,57.4,36.8,29.62,SSW,202,12.0,18.0,46,0.00,,,0.00,343,WeatherCatV1.23B16,2013-11-03 19:20:00,
2013-11-03 13:21:00,57.5,36.9,29.62,South,182,9.0,18.0,46,0.00,,,0.00,325,WeatherCatV1.23B16,2013-11-03 19:21:00,
2013-11-03 13:22:00,57.5,36.9,29.61,SE,132,18.0,18.0,46,0.00,,,0.00,334,WeatherCatV1.23B16,2013-11-03 19:22:00,
2013-11-03 13:23:00,57.6,37.0,29.61,SE,131,13.0,21.0,46,0.00,,,0.00,348,WeatherCatV1.23B16,2013-11-03 19:23:00,
2013-11-03 13:24:00,57.7,36.5,29.61,South,184,13.0,21.0,45,0.00,,,0.00,399,WeatherCatV1.23B16,2013-11-03 19:24:00,
2013-11-03 13:26:00,57.8,37.2,29.61,ESE,122,10.0,17.0,46,0.00,,,0.00,432,WeatherCatV1.23B16,2013-11-03 19:26:00,
2013-11-03 13:27:00,58.1,37.4,29.61,SW,221,15.0,18.0,46,0.00,,,0.00,432,WeatherCatV1.23B16,2013-11-03 19:27:00,
2013-11-03 13:28:00,58.2,37.5,29.61,SW,217,11.0,19.0,46,0.00,,,0.00,432,WeatherCatV1.23B16,2013-11-03 19:28:00,
2013-11-03 13:29:00,58.2,37.5,29.61,SE,130,10.0,19.0,46,0.00,,,0.00,432,WeatherCatV1.23B16,2013-11-03 19:29:00,
2013-11-03 13:31:00,58.5,37.8,29.61,SSW,202,10.0,16.0,46,0.00,,,0.00,359,WeatherCatV1.23B16,2013-11-03 19:31:00,
2013-11-03 13:32:00,58.5,37.8,29.61,SSW,206,12.0,19.0,46,0.00,,,0.00,373,WeatherCatV1.23B16,2013-11-03 19:32:00,
2013-11-03 13:33:00,58.5,37.2,29.61,SSE,156,13.0,19.0,45,0.00,,,0.00,373,WeatherCatV1.23B16,2013-11-03 19:33:00,
2013-11-03 13:34:00,58.5,37.2,29.61,South,173,19.0,19.0,45,0.00,,,0.00,373,WeatherCatV1.23B16,2013-11-03 19:34:00,
2013-11-03 13:36:00,58.6,37.3,29.62,ESE,111,11.0,18.0,45,0.00,,,0.00,378,WeatherCatV1.23B16,2013-11-03 19:36:00,
2013-11-03 13:37:00,58.6,37.3,29.62,SW,216,10.0,16.0,45,0.00,,,0.00,503,WeatherCatV1.23B16,2013-11-03 19:37:00,
2013-11-03 13:38:00,58.6,37.3,29.62,SSW,207,18.0,18.0,45,0.00,,,0.00,550,WeatherCatV1.23B16,2013-11-03 19:38:00,
2013-11-03 13:39:00,58.8,37.5,29.61,SSW,196,12.0,20.0,45,0.00,,,0.00,550,WeatherCatV1.23B16,2013-11-03 19:39:00,
2013-11-03 13:41:00,59.0,37.7,29.61,SSW,192,14.0,23.0,45,0.00,,,0.00,675,WeatherCatV1.23B16,2013-11-03 19:41:00,
2013-11-03 13:42:00,59.0,37.7,29.61,ESE,112,2.0,19.0,45,0.00,,,0.00,520,WeatherCatV1.23B16,2013-11-03 19:42:00,
2013-11-03 13:43:00,59.1,37.8,29.61,South,188,10.0,25.0,45,0.00,,,0.00,564,WeatherCatV1.23B16,2013-11-03 19:43:00,
2013-11-03 13:44:00,59.1,37.8,29.61,WSW,241,4.0,25.0,45,0.00,,,0.00,592,WeatherCatV1.23B16,2013-11-03 19:44:00,
2013-11-03 13:45:00,59.3,38.0,29.61,SSE,162,14.0,14.0,45,0.00,,,0.00,679,WeatherCatV1.23B16,2013-11-03 19:45:00,
2013-11-03 13:46:00,59.4,37.5,29.60,SE,129,9.0,20.0,44,0.00,,,0.00,679,WeatherCatV1.23B16,2013-11-03 19:46:00,
2013-11-03 13:47:00,59.4,37.5,29.60,SSW,213,12.0,20.0,44,0.00,,,0.00,689,WeatherCatV1.23B16,2013-11-03 19:47:00,
2013-11-03 13:48:00,59.5,37.6,29.60,SSW,211,22.0,22.0,44,0.00,,,0.00,689,WeatherCatV1.23B16,2013-11-03 19:48:00,
2013-11-03 13:49:00,59.6,37.7,29.61,SSW,198,9.0,26.0,44,0.00,,,0.00,689,WeatherCatV1.23B16,2013-11-03 19:49:00,
2013-11-03 13:50:00,59.6,37.7,29.60,SSW,204,6.0,26.0,44,0.00,,,0.00,689,WeatherCatV1.23B16,2013-11-03 19:50:00,
2013-11-03 13:51:00,59.9,37.9,29.60,South,186,6.0,26.0,44,0.00,,,0.00,606,WeatherCatV1.23B16,2013-11-03 19:51:00,
2013-11-03 13:52:00,60.0,38.0,29.60,SSW,209,15.0,27.0,44,0.00,,,0.00,689,WeatherCatV1.23B16,2013-11-03 19:52:00,
2013-11-03 13:54:00,60.2,38.2,29.61,SSW,211,15.0,16.0,44,0.00,,,0.00,689,WeatherCatV1.23B16,2013-11-03 19:54:00,
2013-11-03 13:55:00,60.3,37.7,29.61,SSW,208,10.0,19.0,43,0.00,,,0.00,689,WeatherCatV1.23B16,2013-11-03 19:55:00,
2013-11-03 13:56:00,60.2,37.6,29.60,South,179,6.0,19.0,43,0.00,,,0.00,689,WeatherCatV1.23B16,2013-11-03 19:56:00,
2013-11-03 13:57:00,60.0,37.4,29.61,SSE,167,7.0,22.0,43,0.00,,,0.00,206,WeatherCatV1.23B16,2013-11-03 19:57:00,
2013-11-03 13:59:00,59.7,37.2,29.61,SSW,204,12.0,21.0,43,0.00,,,0.00,246,WeatherCatV1.23B16,2013-11-03 19:59:00,
2013-11-03 14:00:00,59.5,37.6,29.61,South,190,17.0,18.0,44,0.00,,,0.00,246,WeatherCatV1.23B16,2013-11-03 20:00:00,
2013-11-03 14:01:00,59.4,37.5,29.61,SE,146,10.0,18.0,44,0.00,,,0.00,207,WeatherCatV1.23B16,2013-11-03 20:01:00,
2013-11-03 14:03:00,59.3,37.4,29.61,South,173,9.0,18.0,44,0.00,,,0.00,499,WeatherCatV1.23B16,2013-11-03 20:03:00,
2013-11-03 14:05:00,59.4,37.5,29.61,SE,138,11.0,18.0,44,0.00,,,0.00,343,WeatherCatV1.23B16,2013-11-03 20:05:00,
2013-11-03 14:06:00,59.5,37.6,29.60,SSE,157,2.0,19.0,44,0.00,,,0.00,357,WeatherCatV1.23B16,2013-11-03 20:06:00,
2013-11-03 14:08:00,59.6,37.7,29.61,South,179,12.0,16.0,44,0.00,,,0.00,243,WeatherCatV1.23B16,2013-11-03 20:08:00,
2013-11-03 14:10:00,59.6,37.7,29.61,SSW,200,13.0,16.0,44,0.00,,,0.00,258,WeatherCatV1.23B16,2013-11-03 20:10:00,
2013-11-03 14:11:00,59.5,37.6,29.61,South,171,6.0,16.0,44,0.00,,,0.00,285,WeatherCatV1.23B16,2013-11-03 20:11:00,
2013-11-03 14:13:00,59.6,37.7,29.61,SSE,147,9.0,13.0,44,0.00,,,0.00,311,WeatherCatV1.23B16,2013-11-03 20:13:00,
2013-11-03 14:15:00,59.7,37.8,29.61,SSW,196,4.0,17.0,44,0.00,,,0.00,255,WeatherCatV1.23B16,2013-11-03 20:15:00,
2013-11-03 14:16:00,59.7,37.8,29.61,South,187,5.0,13.0,44,0.00,,,0.00,267,WeatherCatV1.23B16,2013-11-03 20:16:00,
2013-11-03 14:18:00,59.8,37.8,29.61,South,173,12.0,20.0,44,0.00,,,0.00,288,WeatherCatV1.23B16,2013-11-03 20:18:00,
2013-11-03 14:20:00,59.9,37.9,29.61,SSW,201,4.0,14.0,44,0.00,,,0.00,322,WeatherCatV1.23B16,2013-11-03 20:20:00,
2013-11-03 14:21:00,59.9,37.9,29.61,SSW,192,5.0,14.0,44,0.00,,,0.00,322,WeatherCatV1.23B16,2013-11-03 20:21:00,
2013-11-03 14:22:00,59.9,37.3,29.61,ESE,110,10.0,18.0,43,0.00,,,0.00,309,WeatherCatV1.23B16,2013-11-03 20:22:00,
2013-11-03 14:23:00,59.9,37.9,29.61,SSW,193,7.0,13.0,44,0.00,,,0.00,260,WeatherCatV1.23B16,2013-11-03 20:23:00,
2013-11-03 14:26:00,59.8,37.8,29.61,South,179,5.0,22.0,44,0.00,,,0.00,216,WeatherCatV1.23B16,2013-11-03 20:26:00,
2013-11-03 14:27:00,59.7,37.8,29.61,South,171,3.0,17.0,44,0.00,,,0.00,207,WeatherCatV1.23B16,2013-11-03 20:27:00,
2013-11-03 14:29:00,59.5,37.6,29.61,South,184,15.0,25.0,44,0.00,,,0.00,211,WeatherCatV1.23B16,2013-11-03 20:29:00,
2013-11-03 14:31:00,59.2,36.7,29.61,SW,214,11.0,27.0,43,0.00,,,0.00,216,WeatherCatV1.23B16,2013-11-03 20:31:00,
2013-11-03 14:32:00,59.0,37.1,29.61,South,182,5.0,18.0,44,0.00,,,0.00,211,WeatherCatV1.23B16,2013-11-03 20:32:00,
2013-11-03 14:34:00,59.0,37.1,29.61,SSW,194,5.0,30.0,44,0.00,,,0.00,209,WeatherCatV1.23B16,2013-11-03 20:34:00,
2013-11-03 14:36:00,59.0,37.7,29.61,South,182,6.0,14.0,45,0.00,,,0.00,246,WeatherCatV1.23B16,2013-11-03 20:36:00,
2013-11-03 14:37:00,59.0,37.1,29.61,South,175,5.0,15.0,44,0.00,,,0.00,227,WeatherCatV1.23B16,2013-11-03 20:37:00,
2013-11-03 14:39:00,59.0,37.7,29.61,SSE,155,5.0,14.0,45,0.00,,,0.00,292,WeatherCatV1.23B16,2013-11-03 20:39:00,
2013-11-03 14:41:00,59.0,37.7,29.61,South,175,16.0,20.0,45,0.00,,,0.00,267,WeatherCatV1.23B16,2013-11-03 20:41:00,
2013-11-03 14:42:00,59.0,37.7,29.61,South,175,16.0,20.0,45,0.00,,,0.00,267,WeatherCatV1.23B16,2013-11-03 20:42:00,
2013-11-03 14:43:00,59.0,37.7,29.61,SSE,163,7.0,15.0,45,0.00,,,0.00,329,WeatherCatV1.23B16,2013-11-03 20:43:00,
2013-11-03 14:44:00,59.0,37.7,29.61,SSE,152,10.0,10.0,45,0.00,,,0.00,306,WeatherCatV1.23B16,2013-11-03 20:44:00,
2013-11-03 14:46:00,59.0,37.7,29.61,SSE,150,10.0,12.0,45,0.00,,,0.00,232,WeatherCatV1.23B16,2013-11-03 20:46:00,
2013-11-03 14:47:00,59.0,37.7,29.61,SW,219,19.0,19.0,45,0.00,,,0.00,232,WeatherCatV1.23B16,2013-11-03 20:47:00,
2013-11-03 14:48:00,59.0,37.7,29.61,SSE,158,7.0,25.0,45,0.00,,,0.00,278,WeatherCatV1.23B16,2013-11-03 20:48:00,
2013-11-03 14:49:00,59.0,37.7,29.61,South,169,7.0,25.0,45,0.00,,,0.00,229,WeatherCatV1.23B16,2013-11-03 20:49:00,
2013-11-03 14:51:00,59.0,37.7,29.61,SE,145,8.0,17.0,45,0.00,,,0.00,223,WeatherCatV1.23B16,2013-11-03 20:51:00,
2013-11-03 14:52:00,59.0,37.7,29.61,South,190,12.0,17.0,45,0.00,,,0.00,223,WeatherCatV1.23B16,2013-11-03 20:52:00,
2013-11-03 14:53:00,59.0,37.1,29.61,South,188,12.0,23.0,44,0.00,,,0.00,209,WeatherCatV1.23B16,2013-11-03 20:53:00,
2013-11-03 14:54:00,59.0,37.7,29.61,South,186,10.0,23.0,45,0.00,,,0.00,227,WeatherCatV1.23B16,2013-11-03 20:54:00,
2013-11-03 14:56:00,59.0,37.7,29.61,South,184,6.0,17.0,45,0.00,,,0.00,174,WeatherCatV1.23B16,2013-11-03 20:56:00,
2013-11-03 14:57:00,59.0,37.7,29.61,SE,138,6.0,17.0,45,0.00,,,0.00,174,WeatherCatV1.23B16,2013-11-03 20:57:00,
2013-11-03 14:58:00,59.0,37.7,29.61,SE,146,2.0,17.0,45,0.00,,,0.00,167,WeatherCatV1.23B16,2013-11-03 20:58:00,
2013-11-03 14:59:00,59.0,37.7,29.61,South,171,10.0,18.0,45,0.00,,,0.00,160,WeatherCatV1.23B16,2013-11-03 20:59:00,
2013-11-03 15:02:00,59.0,37.7,29.61,SSW,199,9.0,14.0,45,0.00,,,0.00,148,WeatherCatV1.23B16,2013-11-03 21:02:00,
2013-11-03 15:03:00,59.0,37.7,29.61,SSW,192,4.0,14.0,45,0.00,,,0.00,148,WeatherCatV1.23B16,2013-11-03 21:03:00,
2013-11-03 15:04:00,59.0,38.2,29.61,SE,138,5.0,14.0,46,0.00,,,0.00,148,WeatherCatV1.23B16,2013-11-03 21:04:00,
2013-11-03 15:07:00,58.7,38.0,29.61,SSW,195,5.0,11.0,46,0.00,,,0.00,151,WeatherCatV1.23B16,2013-11-03 21:07:00,
2013-11-03 15:08:00,58.7,38.0,29.62,SSW,198,12.0,12.0,46,0.00,,,0.00,151,WeatherCatV1.23B16,2013-11-03 21:08:00,
2013-11-03 15:09:00,58.7,37.4,29.61,SSW,209,5.0,12.0,45,0.00,,,0.00,151,WeatherCatV1.23B16,2013-11-03 21:09:00,
2013-11-03 15:10:00,58.7,38.0,29.61,SSW,210,12.0,12.0,46,0.00,,,0.00,151,WeatherCatV1.23B16,2013-11-03 21:10:00,
2013-11-03 15:12:00,58.7,37.4,29.61,SSE,165,9.0,15.0,45,0.00,,,0.00,153,WeatherCatV1.23B16,2013-11-03 21:12:00,
2013-11-03 15:13:00,58.7,37.4,29.61,South,185,3.0,15.0,45,0.00,,,0.00,153,WeatherCatV1.23B16,2013-11-03 21:13:00,
2013-11-03 15:14:00,58.7,37.4,29.61,South,185,4.0,15.0,45,0.00,,,0.00,153,WeatherCatV1.23B16,2013-11-03 21:14:00,
2013-11-03 15:15:00,58.8,38.1,29.61,South,187,16.0,18.0,46,0.00,,,0.00,151,WeatherCatV1.23B16,2013-11-03 21:15:00,
2013-11-03 15:18:00,58.7,37.4,29.61,WSW,238,13.0,19.0,45,0.00,,,0.00,149,WeatherCatV1.23B16,2013-11-03 21:18:00,
2013-11-03 15:19:00,58.8,37.5,29.61,South,187,7.0,17.0,45,0.00,,,0.00,148,WeatherCatV1.23B16,2013-11-03 21:19:00,
2013-11-03 15:20:00,58.7,37.4,29.61,SSW,207,11.0,18.0,45,0.00,,,0.00,148,WeatherCatV1.23B16,2013-11-03 21:20:00,
2013-11-03 15:23:00,58.7,37.4,29.60,SE,146,13.0,22.0,45,0.00,,,0.00,156,WeatherCatV1.23B16,2013-11-03 21:23:00,
2013-11-03 15:24:00,58.7,37.4,29.61,SSE,157,7.0,24.0,45,0.00,,,0.00,156,WeatherCatV1.23B16,2013-11-03 21:24:00,
2013-11-03 15:25:00,58.8,37.5,29.61,South,178,11.0,16.0,45,0.00,,,0.00,156,WeatherCatV1.23B16,2013-11-03 21:25:00,
2013-11-03 15:27:00,58.8,37.5,29.61,SSE,166,9.0,24.0,45,0.00,,,0.00,153,WeatherCatV1.23B16,2013-11-03 21:27:00,
2013-11-03 15:28:00,58.9,37.6,29.60,SE,136,11.0,13.0,45,0.00,,,0.00,151,WeatherCatV1.23B16,2013-11-03 21:28:00,
2013-11-03 15:29:00,58.8,37.5,29.61,SE,132,15.0,15.0,45,0.00,,,0.00,151,WeatherCatV1.23B16,2013-11-03 21:29:00,
2013-11-03 15:30:00,58.8,38.1,29.61,South,179,11.0,20.0,46,0.00,,,0.00,151,WeatherCatV1.23B16,2013-11-03 21:30:00,
2013-11-03 15:32:00,58.7,38.0,29.60,SE,133,9.0,18.0,46,0.00,,,0.00,153,WeatherCatV1.23B16,2013-11-03 21:32:00,
2013-11-03 15:33:00,58.7,38.0,29.60,SSE,150,23.0,23.0,46,0.00,,,0.00,151,WeatherCatV1.23B16,2013-11-03 21:33:00,
2013-11-03 15:34:00,58.6,37.9,29.60,SSW,192,9.0,23.0,46,0.00,,,0.00,151,WeatherCatV1.23B16,2013-11-03 21:34:00,
2013-11-03 15:35:00,58.6,37.9,29.60,SE,139,2.0,23.0,46,0.00,,,0.00,148,WeatherCatV1.23B16,2013-11-03 21:35:00,
2013-11-03 15:37:00,58.6,37.9,29.60,SE,129,14.0,14.0,46,0.00,,,0.00,144,WeatherCatV1.23B16,2013-11-03 21:37:00,
2013-11-03 15:39:00,58.5,37.8,29.60,SSE,160,10.0,13.0,46,0.00,,,0.00,141,WeatherCatV1.23B16,2013-11-03 21:39:00,
2013-11-03 15:40:00,58.5,37.8,29.60,SSW,205,7.0,17.0,46,0.00,,,0.00,137,WeatherCatV1.23B16,2013-11-03 21:40:00,
2013-11-03 15:41:00,58.5,37.8,29.60,SSE,162,4.0,17.0,46,0.00,,,0.00,139,WeatherCatV1.23B16,2013-11-03 21:41:00,
2013-11-03 15:43:00,58.5,37.8,29.61,SE,146,5.0,14.0,46,0.00,,,0.00,142,WeatherCatV1.23B16,2013-11-03 21:43:00,
2013-11-03 15:44:00,58.5,37.8,29.60,SSW,205,6.0,16.0,46,0.00,,,0.00,146,WeatherCatV1.23B16,2013-11-03 21:44:00,
2013-11-03 15:45:00,58.5,37.8,29.60,SE,134,3.0,11.0,46,0.00,,,0.00,151,WeatherCatV1.23B16,2013-11-03 21:45:00,
2013-11-03 15:46:00,58.5,38.3,29.60,South,184,11.0,19.0,47,0.00,,,0.00,151,WeatherCatV1.23B16,2013-11-03 21:46:00,
2013-11-03 15:48:00,58.5,37.8,29.60,SE,133,13.0,25.0,46,0.00,,,0.00,153,WeatherCatV1.23B16,2013-11-03 21:48:00,
2013-11-03 15:49:00,58.5,37.8,29.59,SSW,210,15.0,15.0,46,0.00,,,0.00,153,WeatherCatV1.23B16,2013-11-03 21:49:00,
2013-11-03 15:50:00,58.5,37.8,29.59,South,186,2.0,15.0,46,0.00,,,0.00,151,WeatherCatV1.23B16,2013-11-03 21:50:00,
2013-11-03 15:51:00,58.5,38.3,29.60,SE,142,5.0,19.0,47,0.00,,,0.00,141,WeatherCatV1.23B16,2013-11-03 21:51:00,
2013-11-03 15:54:00,58.5,37.8,29.59,SW,218,17.0,22.0,46,0.00,,,0.00,123,WeatherCatV1.23B16,2013-11-03 21:54:00,
2013-11-03 15:55:00,58.5,37.8,29.59,ESE,120,9.0,14.0,46,0.00,,,0.00,121,WeatherCatV1.23B16,2013-11-03 21:55:00,
2013-11-03 15:56:00,58.5,38.3,29.59,South,175,5.0,13.0,47,0.00,,,0.00,121,WeatherCatV1.23B16,2013-11-03 21:56:00,
2013-11-03 15:59:00,58.5,38.3,29.59,South,171,2.0,12.0,47,0.00,,,0.00,127,WeatherCatV1.23B16,2013-11-03 21:59:00,
2013-11-03 16:00:00,58.4,38.2,29.59,SE,129,3.0,13.0,47,0.00,,,0.00,118,WeatherCatV1.23B16,2013-11-03 22:00:00,
2013-11-03 16:02:00,58.4,38.2,29.59,SE,138,12.0,20.0,47,0.00,,,0.00,113,WeatherCatV1.23B16,2013-11-03 22:02:00,
2013-11-03 16:04:00,58.3,38.2,29.59,SE,134,3.0,7.0,47,0.00,,,0.00,102,WeatherCatV1.23B16,2013-11-03 22:04:00,
2013-11-03 16:05:00,58.3,38.2,29.59,SE,130,4.0,7.0,47,0.00,,,0.00,102,WeatherCatV1.23B16,2013-11-03 22:05:00,
2013-11-03 16:07:00,58.3,38.2,29.59,South,169,10.0,22.0,47,0.00,,,0.00,104,WeatherCatV1.23B16,2013-11-03 22:07:00,
2013-11-03 16:09:00,58.4,38.2,29.59,SE,133,5.0,12.0,47,0.00,,,0.00,97,WeatherCatV1.23B16,2013-11-03 22:09:00,
2013-11-03 16:10:00,58.4,38.2,29.59,SSE,168,9.0,18.0,47,0.00,,,0.00,100,WeatherCatV1.23B16,2013-11-03 22:10:00,
2013-11-03 16:11:00,58.4,38.2,29.59,SSW,210,6.0,18.0,47,0.00,,,0.00,134,WeatherCatV1.23B16,2013-11-03 22:11:00,
2013-11-03 16:12:00,58.4,38.2,29.59,SSE,163,4.0,19.0,47,0.00,,,0.00,111,WeatherCatV1.23B16,2013-11-03 22:12:00,
2013-11-03 16:14:00,58.4,38.2,29.59,SSE,153,3.0,11.0,47,0.00,,,0.00,98,WeatherCatV1.23B16,2013-11-03 22:14:00,
2013-11-03 16:15:00,58.4,38.2,29.59,SSE,160,6.0,9.0,47,0.00,,,0.00,95,WeatherCatV1.23B16,2013-11-03 22:15:00,
2013-11-03 16:16:00,58.4,38.2,29.59,SSE,149,6.0,12.0,47,0.00,,,0.00,95,WeatherCatV1.23B16,2013-11-03 22:16:00,
2013-11-03 16:18:00,58.3,38.2,29.59,South,173,5.0,15.0,47,0.00,,,0.00,86,WeatherCatV1.23B16,2013-11-03 22:18:00,
2013-11-03 16:19:00,58.2,38.1,29.59,SSE,157,4.0,13.0,47,0.00,,,0.00,81,WeatherCatV1.23B16,2013-11-03 22:19:00,
2013-11-03 16:20:00,58.2,38.1,29.58,SSE,157,4.0,13.0,47,0.00,,,0.00,81,WeatherCatV1.23B16,2013-11-03 22:20:00,
2013-11-03 16:21:00,58.2,38.1,29.58,SSE,150,9.0,17.0,47,0.00,,,0.00,79,WeatherCatV1.23B16,2013-11-03 22:21:00,
2013-11-03 16:23:00,58.1,38.0,29.59,South,182,14.0,14.0,47,0.00,,,0.00,81,WeatherCatV1.23B16,2013-11-03 22:23:00,
2013-11-03 16:25:00,58.0,37.9,29.58,SE,138,5.0,15.0,47,0.00,,,0.00,65,WeatherCatV1.23B16,2013-11-03 22:25:00,
2013-11-03 16:26:00,58.0,37.9,29.58,South,191,6.0,13.0,47,0.00,,,0.00,62,WeatherCatV1.23B16,2013-11-03 22:26:00,
2013-11-03 16:27:00,58.0,37.9,29.58,SSE,151,2.0,11.0,47,0.00,,,0.00,58,WeatherCatV1.23B16,2013-11-03 22:27:00,
2013-11-03 16:28:00,57.9,37.8,29.58,SSE,157,2.0,13.0,47,0.00,,,0.00,56,WeatherCatV1.23B16,2013-11-03 22:28:00,
2013-11-03 16:30:00,57.8,38.2,29.58,SSE,157,5.0,11.0,48,0.00,,,0.00,56,WeatherCatV1.23B16,2013-11-03 22:30:00,
2013-11-03 16:31:00,57.8,38.2,29.58,SE,136,4.0,13.0,48,0.00,,,0.00,60,WeatherCatV1.23B16,2013-11-03 22:31:00,
2013-11-03 16:32:00,57.7,38.2,29.58,South,179,2.0,13.0,48,0.00,,,0.00,65,WeatherCatV1.23B16,2013-11-03 22:32:00,
2013-11-03 16:33:00,57.6,38.0,29.58,ESE,108,5.0,12.0,48,0.00,,,0.00,58,WeatherCatV1.23B16,2013-11-03 22:33:00,
2013-11-03 16:35:00,57.5,38.0,29.58,ESE,105,9.0,17.0,48,0.00,,,0.00,63,WeatherCatV1.23B16,2013-11-03 22:35:00,
2013-11-03 16:36:00,57.4,37.9,29.58,SSE,149,11.0,17.0,48,0.00,,,0.00,62,WeatherCatV1.23B16,2013-11-03 22:36:00,
2013-11-03 16:37:00,57.4,38.4,29.58,SE,133,6.0,13.0,49,0.00,,,0.00,60,WeatherCatV1.23B16,2013-11-03 22:37:00,
2013-11-03 16:39:00,57.4,37.9,29.58,SSW,204,6.0,14.0,48,0.00,,,0.00,62,WeatherCatV1.23B16,2013-11-03 22:39:00,
2013-11-03 16:40:00,57.4,38.4,29.58,South,169,12.0,17.0,49,0.00,,,0.00,62,WeatherCatV1.23B16,2013-11-03 22:40:00,
2013-11-03 16:41:00,57.4,37.9,29.58,SSE,152,3.0,17.0,48,0.00,,,0.00,63,WeatherCatV1.23B16,2013-11-03 22:41:00,
2013-11-03 16:42:00,57.4,38.4,29.58,South,187,5.0,6.0,49,0.00,,,0.00,63,WeatherCatV1.23B16,2013-11-03 22:42:00,
2013-11-03 16:44:00,57.5,38.0,29.58,SW,217,3.0,18.0,48,0.00,,,0.00,62,WeatherCatV1.23B16,2013-11-03 22:44:00,
2013-11-03 16:45:00,57.5,38.0,29.58,SSE,164,4.0,14.0,48,0.00,,,0.00,60,WeatherCatV1.23B16,2013-11-03 22:45:00,
2013-11-03 16:46:00,57.5,38.0,29.58,SSE,149,4.0,14.0,48,0.00,,,0.00,58,WeatherCatV1.23B16,2013-11-03 22:46:00,
2013-11-03 16:47:00,57.6,38.0,29.58,South,190,9.0,12.0,48,0.00,,,0.00,53,WeatherCatV1.23B16,2013-11-03 22:47:00,
2013-11-03 16:48:00,57.6,38.0,29.58,SSE,150,9.0,14.0,48,0.00,,,0.00,53,WeatherCatV1.23B16,2013-11-03 22:48:00,
2013-11-03 16:49:00,57.7,38.2,29.58,SSE,163,5.0,14.0,48,0.00,,,0.00,47,WeatherCatV1.23B16,2013-11-03 22:49:00,
2013-11-03 16:50:00,57.8,38.2,29.58,SE,131,6.0,12.0,48,0.00,,,0.00,46,WeatherCatV1.23B16,2013-11-03 22:50:00,
2013-11-03 16:51:00,57.8,38.2,29.58,SSE,157,5.0,12.0,48,0.00,,,0.00,46,WeatherCatV1.23B16,2013-11-03 22:51:00,
2013-11-03 16:52:00,58.0,37.9,29.58,SW,218,12.0,14.0,47,0.00,,,0.00,42,WeatherCatV1.23B16,2013-11-03 22:52:00,
2013-11-03 16:53:00,58.0,37.9,29.58,South,187,14.0,14.0,47,0.00,,,0.00,40,WeatherCatV1.23B16,2013-11-03 22:53:00,
2013-11-03 16:54:00,58.1,38.0,29.58,South,188,3.0,14.0,47,0.00,,,0.00,39,WeatherCatV1.23B16,2013-11-03 22:54:00,
2013-11-03 16:55:00,58.2,38.1,29.58,SE,137,12.0,16.0,47,0.00,,,0.00,37,WeatherCatV1.23B16,2013-11-03 22:55:00,
2013-11-03 16:56:00,58.2,38.1,29.58,SE,131,9.0,16.0,47,0.00,,,0.00,35,WeatherCatV1.23B16,2013-11-03 22:56:00,
2013-11-03 16:58:00,58.3,38.2,29.58,SSE,151,5.0,15.0,47,0.00,,,0.00,32,WeatherCatV1.23B16,2013-11-03 22:58:00,
2013-11-03 16:59:00,58.3,38.2,29.58,SSE,157,6.0,13.0,47,0.00,,,0.00,30,WeatherCatV1.23B16,2013-11-03 22:59:00,
2013-11-03 17:01:00,58.4,38.2,29.58,East,101,10.0,15.0,47,0.00,,,0.00,26,WeatherCatV1.23B16,2013-11-03 23:01:00,
2013-11-03 17:03:00,58.4,38.2,29.58,SSE,148,6.0,15.0,47,0.00,,,0.00,25,WeatherCatV1.23B16,2013-11-03 23:03:00,
2013-11-03 17:04:00,58.4,38.2,29.58,SSE,150,10.0,15.0,47,0.00,,,0.00,23,WeatherCatV1.23B16,2013-11-03 23:04:00,
2013-11-03 17:05:00,58.4,38.2,29.58,SSE,166,12.0,14.0,47,0.00,,,0.00,23,WeatherCatV1.23B16,2013-11-03 23:05:00,
2013-11-03 17:06:00,58.4,38.2,29.58,SE,128,11.0,16.0,47,0.00,,,0.00,21,WeatherCatV1.23B16,2013-11-03 23:06:00,
2013-11-03 17:07:00,58.3,38.2,29.58,ESE,117,6.0,16.0,47,0.00,,,0.00,21,WeatherCatV1.23B16,2013-11-03 23:07:00,
2013-11-03 17:08:00,58.2,39.1,29.58,SE,134,3.0,11.0,49,0.00,,,0.00,19,WeatherCatV1.23B16,2013-11-03 23:08:00,
2013-11-03 17:09:00,58.1,38.5,29.58,SSE,159,4.0,7.0,48,0.00,,,0.00,19,WeatherCatV1.23B16,2013-11-03 23:09:00,
2013-11-03 17:10:00,58.0,38.4,29.58,South,180,6.0,16.0,48,0.00,,,0.00,18,WeatherCatV1.23B16,2013-11-03 23:10:00,
2013-11-03 17:11:00,57.9,38.3,29.58,East,98,5.0,17.0,48,0.00,,,0.00,18,WeatherCatV1.23B16,2013-11-03 23:11:00,
2013-11-03 17:12:00,57.8,38.2,29.58,SE,143,6.0,17.0,48,0.00,,,0.00,18,WeatherCatV1.23B16,2013-11-03 23:12:00,
2013-11-03 17:14:00,57.7,38.2,29.58,ESE,104,3.0,17.0,48,0.00,,,0.00,18,WeatherCatV1.23B16,2013-11-03 23:14:00,
2013-11-03 17:15:00,57.6,38.6,29.57,SE,142,5.0,17.0,49,0.00,,,0.00,16,WeatherCatV1.23B16,2013-11-03 23:15:00,
2013-11-03 17:16:00,57.5,38.5,29.58,SSE,163,6.0,14.0,49,0.00,,,0.00,14,WeatherCatV1.23B16,2013-11-03 23:16:00,
2013-11-03 17:17:00,57.5,38.5,29.57,South,179,11.0,11.0,49,0.00,,,0.00,12,WeatherCatV1.23B16,2013-11-03 23:17:00,
2013-11-03 17:19:00,57.4,38.4,29.58,SSE,157,2.0,13.0,49,0.00,,,0.00,9,WeatherCatV1.23B16,2013-11-03 23:19:00,
2013-11-03 17:20:00,57.3,38.3,29.58,SE,126,5.0,16.0,49,0.00,,,0.00,9,WeatherCatV1.23B16,2013-11-03 23:20:00,
2013-11-03 17:21:00,57.3,38.3,29.58,ESE,120,5.0,16.0,49,0.00,,,0.00,7,WeatherCatV1.23B16,2013-11-03 23:21:00,
2013-11-03 17:22:00,57.3,38.3,29.58,South,190,11.0,14.0,49,0.00,,,0.00,7,WeatherCatV1.23B16,2013-11-03 23:22:00,
2013-11-03 17:24:00,57.3,38.3,29.58,East,98,11.0,15.0,49,0.00,,,0.00,5,WeatherCatV1.23B16,2013-11-03 23:24:00,
2013-11-03 17:25:00,57.3,38.3,29.58,SSE,156,3.0,15.0,49,0.00,,,0.00,5,WeatherCatV1.23B16,2013-11-03 23:25:00,
2013-11-03 17:26:00,57.3,38.3,29.58,SSE,155,5.0,13.0,49,0.00,,,0.00,5,WeatherCatV1.23B16,2013-11-03 23:26:00,
2013-11-03 17:27:00,57.3,38.3,29.58,SE,142,10.0,16.0,49,0.00,,,0.00,5,WeatherCatV1.23B16,2013-11-03 23:27:00,
2013-11-03 17:29:00,57.4,38.4,29.58,ESE,119,3.0,17.0,49,0.00,,,0.00,5,WeatherCatV1.23B16,2013-11-03 23:29:00,
2013-11-03 17:30:00,57.4,38.4,29.58,ESE,119,9.0,12.0,49,0.00,,,0.00,5,WeatherCatV1.23B16,2013-11-03 23:30:00,
2013-11-03 17:31:00,57.4,37.9,29.58,SE,137,3.0,14.0,48,0.00,,,0.00,5,WeatherCatV1.23B16,2013-11-03 23:31:00,
2013-11-03 17:32:00,57.5,38.5,29.58,SE,132,13.0,14.0,49,0.00,,,0.00,5,WeatherCatV1.23B16,2013-11-03 23:32:00,
2013-11-03 17:35:00,57.5,38.5,29.58,SSE,168,6.0,12.0,49,0.00,,,0.00,0,WeatherCatV1.23B16,2013-11-03 23:35:00,
2013-11-03 17:36:00,57.5,38.5,29.58,SSE,148,5.0,10.0,49,0.00,,,0.00,0,WeatherCatV1.23B16,2013-11-03 23:36:00,
2013-11-03 17:37:00,57.5,38.5,29.58,SE,137,9.0,14.0,49,0.00,,,0.00,0,WeatherCatV1.23B16,2013-11-03 23:37:00,
2013-11-03 17:38:00,57.5,38.5,29.58,SSE,149,7.0,14.0,49,0.00,,,0.00,0,WeatherCatV1.23B16,2013-11-03 23:38:00,
2013-11-03 17:40:00,57.4,38.4,29.58,ESE,103,10.0,15.0,49,0.00,,,0.00,0,WeatherCatV1.23B16,2013-11-03 23:40:00,
2013-11-03 17:41:00,57.3,38.3,29.58,SE,138,4.0,15.0,49,0.00,,,0.00,0,WeatherCatV1.23B16,2013-11-03 23:41:00,
2013-11-03 17:42:00,57.3,38.3,29.58,SE,132,6.0,14.0,49,0.00,,,0.00,0,WeatherCatV1.23B16,2013-11-03 23:42:00,
2013-11-03 17:43:00,57.2,38.2,29.58,SSE,163,5.0,14.0,49,0.00,,,0.00,0,WeatherCatV1.23B16,2013-11-03 23:43:00,
2013-11-03 17:45:00,57.1,38.1,29.58,SE,140,10.0,18.0,49,0.00,,,0.00,0,WeatherCatV1.23B16,2013-11-03 23:45:00,
2013-11-03 17:46:00,57.1,38.1,29.59,South,176,6.0,18.0,49,0.00,,,0.00,0,WeatherCatV1.23B16,2013-11-03 23:46:00,
2013-11-03 17:47:00,57.1,38.1,29.59,SSW,197,3.0,11.0,49,0.00,,,0.00,0,WeatherCatV1.23B16,2013-11-03 23:47:00,
2013-11-03 17:48:00,57.1,38.1,29.59,SSE,148,6.0,12.0,49,0.00,,,0.00,0,WeatherCatV1.23B16,2013-11-03 23:48:00,
2013-11-03 17:50:00,57.1,38.1,29.58,South,182,4.0,14.0,49,0.00,,,0.00,0,WeatherCatV1.23B16,2013-11-03 23:50:00,
2013-11-03 17:51:00,57.1,38.1,29.58,SE,142,6.0,17.0,49,0.00,,,0.00,0,WeatherCatV1.23B16,2013-11-03 23:51:00,
2013-11-03 17:52:00,57.1,38.1,29.58,SW,217,12.0,17.0,49,0.00,,,0.00,0,WeatherCatV1.23B16,2013-11-03 23:52:00,
2013-11-03 17:53:00,57.0,38.0,29.58,ESE,122,12.0,12.0,49,0.00,,,0.00,0,WeatherCatV1.23B16,2013-11-03 23:53:00,
2013-11-03 17:56:00,57.1,38.1,29.59,SE,142,11.0,19.0,49,0.00,,,0.00,0,WeatherCatV1.23B16,2013-11-03 23:56:00,
2013-11-03 17:57:00,57.1,38.1,29.59,SE,132,14.0,25.0,49,0.00,,,0.00,0,WeatherCatV1.23B16,2013-11-03 23:57:00,
2013-11-03 17:59:00,57.1,38.1,29.59,SW,216,5.0,25.0,49,0.00,,,0.00,0,WeatherCatV1.23B16,2013-11-03 23:59:00,
2013-11-03 18:01:00,57.1,38.6,29.59,SE,128,13.0,13.0,50,0.00,,,0.00,0,WeatherCatV1.23B16,2013-11-04 00:01:00,
2013-11-03 18:02:00,57.1,38.6,29.59,SE,130,15.0,20.0,50,0.00,,,0.00,0,WeatherCatV1.23B16,2013-11-04 00:02:00,
2013-11-03 18:04:00,57.2,38.2,29.59,South,182,10.0,14.0,49,0.00,,,0.00,0,WeatherCatV1.23B16,2013-11-04 00:04:00,
2013-11-03 18:06:00,57.2,38.2,29.59,SE,140,10.0,13.0,49,0.00,,,0.00,0,WeatherCatV1.23B16,2013-11-04 00:06:00,
2013-11-03 18:07:00,57.2,38.2,29.59,SE,133,3.0,15.0,49,0.00,,,0.00,0,WeatherCatV1.23B16,2013-11-04 00:07:00,
2013-11-03 18:08:00,57.2,38.2,29.59,SE,140,7.0,15.0,49,0.00,,,0.00,0,WeatherCatV1.23B16,2013-11-04 00:08:00,
2013-11-03 18:09:00,57.2,38.2,29.59,SSE,155,10.0,17.0,49,0.00,,,0.00,0,WeatherCatV1.23B16,2013-11-04 00:09:00,
2013-11-03 18:11:00,57.1,38.6,29.59,SE,133,5.0,11.0,50,0.00,,,0.00,0,WeatherCatV1.23B16,2013-11-04 00:11:00,
2013-11-03 18:13:00,57.0,38.5,29.59,SE,145,5.0,13.0,50,0.00,,,0.00,0,WeatherCatV1.23B16,2013-11-04 00:13:00,
2013-11-03 18:14:00,56.9,38.5,29.59,SE,138,4.0,14.0,50,0.00,,,0.00,0,WeatherCatV1.23B16,2013-11-04 00:14:00,
2013-11-03 18:16:00,56.9,38.5,29.60,SE,139,9.0,22.0,50,0.00,,,0.00,0,WeatherCatV1.23B16,2013-11-04 00:16:00,
2013-11-03 18:18:00,56.9,38.5,29.60,SE,132,19.0,19.0,50,0.00,,,0.00,0,WeatherCatV1.23B16,2013-11-04 00:18:00,
2013-11-03 18:20:00,56.8,38.4,29.59,SSE,163,11.0,15.0,50,0.00,,,0.00,0,WeatherCatV1.23B16,2013-11-04 00:20:00,
2013-11-03 18:21:00,56.9,38.5,29.60,ESE,108,7.0,16.0,50,0.00,,,0.00,0,WeatherCatV1.23B16,2013-11-04 00:21:00,
2013-11-03 18:23:00,56.8,38.4,29.60,SSE,161,9.0,15.0,50,0.00,,,0.00,0,WeatherCatV1.23B16,2013-11-04 00:23:00,
2013-11-03 18:24:00,56.8,38.4,29.60,South,173,6.0,15.0,50,0.00,,,0.00,0,WeatherCatV1.23B16,2013-11-04 00:24:00,
2013-11-03 18:25:00,56.8,38.4,29.60,SE,141,6.0,22.0,50,0.00,,,0.00,0,WeatherCatV1.23B16,2013-11-04 00:25:00,
2013-11-03 18:27:00,56.8,38.4,29.60,South,169,6.0,12.0,50,0.00,,,0.00,0,WeatherCatV1.23B16,2013-11-04 00:27:00,
2013-11-03 18:28:00,56.8,38.4,29.60,South,175,14.0,15.0,50,0.00,,,0.00,0,WeatherCatV1.23B16,2013-11-04 00:28:00,
2013-11-03 18:29:00,56.8,38.4,29.60,SSW,195,7.0,16.0,50,0.00,,,0.00,0,WeatherCatV1.23B16,2013-11-04 00:29:00,
2013-11-03 18:30:00,56.9,38.5,29.60,SSW,192,13.0,21.0,50,0.00,,,0.00,0,WeatherCatV1.23B16,2013-11-04 00:30:00,
2013-11-03 18:32:00,56.9,38.5,29.60,SSE,165,12.0,17.0,50,0.00,,,0.00,0,WeatherCatV1.23B16,2013-11-04 00:32:00,
2013-11-03 18:33:00,56.9,38.5,29.60,South,173,5.0,17.0,50,0.00,,,0.00,0,WeatherCatV1.23B16,2013-11-04 00:33:00,
2013-11-03 18:34:00,56.9,38.5,29.60,SE,146,3.0,17.0,50,0.00,,,0.00,0,WeatherCatV1.23B16,2013-11-04 00:34:00,
2013-11-03 18:35:00,56.9,38.5,29.60,SE,132,12.0,16.0,50,0.00,,,0.00,0,WeatherCatV1.23B16,2013-11-04 00:35:00,
2013-11-03 18:37:00,56.9,38.5,29.60,South,185,14.0,17.0,50,0.00,,,0.00,0,WeatherCatV1.23B16,2013-11-04 00:37:00,
2013-11-03 18:38:00,56.9,38.5,29.61,SE,138,12.0,17.0,50,0.00,,,0.00,0,WeatherCatV1.23B16,2013-11-04 00:38:00,
2013-11-03 18:39:00,56.9,37.9,29.60,South,186,11.0,27.0,49,0.00,,,0.00,0,WeatherCatV1.23B16,2013-11-04 00:39:00,
2013-11-03 18:40:00,56.9,37.9,29.61,SSE,155,3.0,27.0,49,0.00,,,0.00,0,WeatherCatV1.23B16,2013-11-04 00:40:00,
2013-11-03 18:41:00,56.9,38.5,29.61,SW,216,17.0,27.0,50,0.00,,,0.00,0,WeatherCatV1.23B16,2013-11-04 00:41:00,
2013-11-03 18:42:00,56.9,38.5,29.61,SSE,161,7.0,19.0,50,0.00,,,0.00,0,WeatherCatV1.23B16,2013-11-04 00:42:00,
2013-11-03 18:43:00,56.9,38.5,29.60,SSE,159,14.0,20.0,50,0.00,,,0.00,0,WeatherCatV1.23B16,2013-11-04 00:43:00,
2013-11-03 18:44:00,56.9,38.5,29.61,SE,126,4.0,20.0,50,0.00,,,0.00,0,WeatherCatV1.23B16,2013-11-04 00:44:00,
2013-11-03 18:45:00,56.9,38.5,29.60,ESE,116,12.0,20.0,50,0.00,,,0.00,0,WeatherCatV1.23B16,2013-11-04 00:45:00,
2013-11-03 18:46:00,56.9,38.5,29.60,SSW,213,7.0,17.0,50,0.00,,,0.00,0,WeatherCatV1.23B16,2013-11-04 00:46:00,
2013-11-03 18:48:00,56.8,38.4,29.61,South,184,11.0,14.0,50,0.00,,,0.00,0,WeatherCatV1.23B16,2013-11-04 00:48:00,
2013-11-03 18:49:00,56.7,38.3,29.60,SW,214,7.0,20.0,50,0.00,,,0.00,0,WeatherCatV1.23B16,2013-11-04 00:49:00,
2013-11-03 18:50:00,56.7,38.3,29.61,ESE,121,6.0,20.0,50,0.00,,,0.00,0,WeatherCatV1.23B16,2013-11-04 00:50:00,
2013-11-03 18:51:00,56.7,38.3,29.61,SSE,151,6.0,21.0,50,0.00,,,0.00,0,WeatherCatV1.23B16,2013-11-04 00:51:00,
2013-11-03 18:53:00,56.7,38.3,29.60,South,169,15.0,16.0,50,0.00,,,0.00,0,WeatherCatV1.23B16,2013-11-04 00:53:00,
2013-11-03 18:54:00,56.6,38.2,29.60,SE,141,15.0,15.0,50,0.00,,,0.00,0,WeatherCatV1.23B16,2013-11-04 00:54:00,
2013-11-03 18:55:00,56.6,38.2,29.60,SSE,163,6.0,15.0,50,0.00,,,0.00,0,WeatherCatV1.23B16,2013-11-04 00:55:00,
2013-11-03 18:56:00,56.6,38.2,29.61,SSW,192,10.0,21.0,50,0.00,,,0.00,0,WeatherCatV1.23B16,2013-11-04 00:56:00,
2013-11-03 18:58:00,56.6,38.2,29.61,SSW,201,4.0,25.0,50,0.00,,,0.00,0,WeatherCatV1.23B16,2013-11-04 00:58:00,
2013-11-03 19:00:00,56.6,38.2,29.61,South,172,6.0,15.0,50,0.00,,,0.00,0,WeatherCatV1.23B16,2013-11-04 01:00:00,
2013-11-03 19:01:00,56.6,38.2,29.61,SSW,192,12.0,15.0,50,0.00,,,0.00,0,WeatherCatV1.23B16,2013-11-04 01:01:00,
2013-11-03 19:03:00,56.6,38.2,29.61,SSE,150,12.0,19.0,50,0.00,,,0.00,0,WeatherCatV1.23B16,2013-11-04 01:03:00,
2013-11-03 19:05:00,56.6,38.2,29.61,South,188,8.0,15.0,50,0.00,,,0.00,0,WeatherCatV1.23B16,2013-11-04 01:05:00,
2013-11-03 19:06:00,56.5,38.1,29.61,SSW,199,7.0,15.0,50,0.00,,,0.00,0,WeatherCatV1.23B16,2013-11-04 01:06:00,
2013-11-03 19:10:00,56.4,38.0,29.61,SE,130,11.0,26.0,50,0.00,,,0.00,0,WeatherCatV1.23B16,2013-11-04 01:10:00,
2013-11-03 19:11:00,56.4,38.0,29.61,South,183,7.0,17.0,50,0.00,,,0.00,0,WeatherCatV1.23B16,2013-11-04 01:11:00,
2013-11-03 19:12:00,56.4,38.0,29.61,South,173,3.0,17.0,50,0.00,,,0.00,0,WeatherCatV1.23B16,2013-11-04 01:12:00,
2013-11-03 19:15:00,56.2,38.3,29.61,SSE,156,6.0,17.0,51,0.00,,,0.00,0,WeatherCatV1.23B16,2013-11-04 01:15:00,
2013-11-03 19:16:00,56.1,38.2,29.61,SSW,207,15.0,17.0,51,0.00,,,0.00,0,WeatherCatV1.23B16,2013-11-04 01:16:00,
2013-11-03 19:17:00,56.1,38.2,29.61,SSE,158,7.0,15.0,51,0.00,,,0.00,0,WeatherCatV1.23B16,2013-11-04 01:17:00,
2013-11-03 19:20:00,55.9,38.0,29.61,South,180,6.0,16.0,51,0.00,,,0.00,0,WeatherCatV1.23B16,2013-11-04 01:20:00,
2013-11-03 19:21:00,55.9,38.0,29.61,SSE,164,10.0,16.0,51,0.00,,,0.00,0,WeatherCatV1.23B16,2013-11-04 01:21:00,
2013-11-03 19:22:00,55.8,37.9,29.61,South,186,8.0,16.0,51,0.00,,,0.00,0,WeatherCatV1.23B16,2013-11-04 01:22:00,
2013-11-03 19:25:00,55.7,37.8,29.61,South,190,15.0,17.0,51,0.00,,,0.00,0,WeatherCatV1.23B16,2013-11-04 01:25:00,
2013-11-03 19:26:00,55.7,38.3,29.61,SSW,192,3.0,17.0,52,0.00,,,0.00,0,WeatherCatV1.23B16,2013-11-04 01:26:00,
2013-11-03 19:27:00,55.7,38.3,29.61,SSW,198,10.0,11.0,52,0.00,,,0.00,0,WeatherCatV1.23B16,2013-11-04 01:27:00,
2013-11-03 19:30:00,55.5,38.2,29.62,SSW,211,10.0,12.0,52,0.00,,,0.00,0,WeatherCatV1.23B16,2013-11-04 01:30:00,
2013-11-03 19:31:00,55.5,38.2,29.61,SSE,148,6.0,12.0,52,0.00,,,0.00,0,WeatherCatV1.23B16,2013-11-04 01:31:00,
2013-11-03 19:32:00,55.4,38.1,29.61,SE,134,6.0,13.0,52,0.00,,,0.00,0,WeatherCatV1.23B16,2013-11-04 01:32:00,
2013-11-03 19:36:00,55.3,38.0,29.61,SSW,197,6.0,12.0,52,0.00,,,0.00,0,WeatherCatV1.23B16,2013-11-04 01:36:00,
2013-11-03 19:37:00,55.3,38.5,29.61,SE,125,3.0,14.0,53,0.00,,,0.00,0,WeatherCatV1.23B16,2013-11-04 01:37:00,
2013-11-03 19:41:00,55.1,38.3,29.61,ESE,119,12.0,14.0,53,0.00,,,0.00,0,WeatherCatV1.23B16,2013-11-04 01:41:00,
2013-11-03 19:42:00,55.1,38.3,29.62,SE,136,5.0,12.0,53,0.00,,,0.00,0,WeatherCatV1.23B16,2013-11-04 01:42:00,
2013-11-03 19:47:00,55.0,38.2,29.61,ESE,115,14.0,20.0,53,0.00,,,0.00,0,WeatherCatV1.23B16,2013-11-04 01:47:00,
2013-11-03 19:48:00,54.9,38.1,29.61,SSE,163,5.0,14.0,53,0.00,,,0.00,0,WeatherCatV1.23B16,2013-11-04 01:48:00,
2013-11-03 19:52:00,54.6,38.3,29.62,SE,141,4.0,15.0,54,0.00,,,0.00,0,WeatherCatV1.23B16,2013-11-04 01:52:00,
2013-11-03 19:53:00,54.6,38.3,29.62,South,170,6.0,15.0,54,0.00,,,0.00,0,WeatherCatV1.23B16,2013-11-04 01:53:00,
2013-11-03 19:57:00,54.4,38.1,29.62,SE,137,12.0,13.0,54,0.00,,,0.00,0,WeatherCatV1.23B16,2013-11-04 01:57:00,
2013-11-03 19:58:00,54.3,38.0,29.62,South,170,9.0,14.0,54,0.00,,,0.00,0,WeatherCatV1.23B16,2013-11-04 01:58:00,
2013-11-03 20:02:00,54.0,38.2,29.62,SE,141,6.0,18.0,55,0.00,,,0.00,0,WeatherCatV1.23B16,2013-11-04 02:02:00,
2013-11-03 20:03:00,53.9,38.1,29.62,SSW,208,7.0,11.0,55,0.00,,,0.00,0,WeatherCatV1.23B16,2013-11-04 02:03:00,
2013-11-03 20:07:00,53.6,37.8,29.62,South,181,15.0,15.0,55,0.00,,,0.00,0,WeatherCatV1.23B16,2013-11-04 02:07:00,
2013-11-03 20:08:00,53.5,38.2,29.62,SE,133,11.0,15.0,56,0.00,,,0.00,0,WeatherCatV1.23B16,2013-11-04 02:08:00,
2013-11-03 20:09:00,53.5,38.2,29.62,South,171,4.0,15.0,56,0.00,,,0.00,0,WeatherCatV1.23B16,2013-11-04 02:09:00,
2013-11-03 20:12:00,53.4,38.5,29.62,South,175,6.0,15.0,57,0.00,,,0.00,0,WeatherCatV1.23B16,2013-11-04 02:12:00,
2013-11-03 20:13:00,53.4,38.5,29.62,South,171,11.0,15.0,57,0.00,,,0.00,0,WeatherCatV1.23B16,2013-11-04 02:13:00,
2013-11-03 20:14:00,53.3,38.5,29.62,SE,126,11.0,14.0,57,0.00,,,0.00,0,WeatherCatV1.23B16,2013-11-04 02:14:00,
2013-11-03 20:15:00,53.3,38.0,29.62,SE,138,9.0,14.0,56,0.00,,,0.00,0,WeatherCatV1.23B16,2013-11-04 02:15:00,
2013-11-03 20:17:00,53.2,38.4,29.62,South,182,3.0,18.0,57,0.00,,,0.00,0,WeatherCatV1.23B16,2013-11-04 02:17:00,
2013-11-03 20:18:00,53.2,38.4,29.62,SW,221,6.0,18.0,57,0.00,,,0.00,0,WeatherCatV1.23B16,2013-11-04 02:18:00,
2013-11-03 20:19:00,53.1,38.3,29.62,SSE,161,9.0,11.0,57,0.00,,,0.00,0,WeatherCatV1.23B16,2013-11-04 02:19:00,
2013-11-03 20:20:00,53.1,38.3,29.62,SSE,150,8.0,12.0,57,0.00,,,0.00,0,WeatherCatV1.23B16,2013-11-04 02:20:00,
2013-11-03 20:22:00,53.0,38.2,29.62,SSE,164,3.0,11.0,57,0.00,,,0.00,0,WeatherCatV1.23B16,2013-11-04 02:22:00,
2013-11-03 20:23:00,53.0,38.2,29.62,SE,140,4.0,7.0,57,0.00,,,0.00,0,WeatherCatV1.23B16,2013-11-04 02:23:00,
2013-11-03 20:24:00,53.0,38.2,29.63,SSE,160,6.0,13.0,57,0.00,,,0.00,0,WeatherCatV1.23B16,2013-11-04 02:24:00,
2013-11-03 20:25:00,52.9,38.1,29.62,SE,141,2.0,13.0,57,0.00,,,0.00,0,WeatherCatV1.23B16,2013-11-04 02:25:00,
2013-11-03 20:27:00,52.9,38.1,29.62,South,184,3.0,8.0,57,0.00,,,0.00,0,WeatherCatV1.23B16,2013-11-04 02:27:00,
2013-11-03 20:28:00,52.9,38.1,29.62,SSE,148,7.0,8.0,57,0.00,,,0.00,0,WeatherCatV1.23B16,2013-11-04 02:28:00,
2013-11-03 20:29:00,52.9,38.1,29.62,SSW,199,5.0,12.0,57,0.00,,,0.00,0,WeatherCatV1.23B16,2013-11-04 02:29:00,
2013-11-03 20:30:00,52.9,38.1,29.62,SSE,150,8.0,12.0,57,0.00,,,0.00,0,WeatherCatV1.23B16,2013-11-04 02:30:00,
2013-11-03 20:32:00,52.8,38.4,29.63,South,175,5.0,14.0,58,0.00,,,0.00,0,WeatherCatV1.23B16,2013-11-04 02:32:00,
2013-11-03 20:33:00,52.8,38.4,29.63,SE,126,2.0,14.0,58,0.00,,,0.00,0,WeatherCatV1.23B16,2013-11-04 02:33:00,
2013-11-03 20:34:00,52.8,38.4,29.63,SE,144,6.0,14.0,58,0.00,,,0.00,0,WeatherCatV1.23B16,2013-11-04 02:34:00,
2013-11-03 20:35:00,52.8,38.4,29.63,South,178,4.0,14.0,58,0.00,,,0.00,0,WeatherCatV1.23B16,2013-11-04 02:35:00,
2013-11-03 20:38:00,52.7,38.3,29.63,SSE,150,6.0,9.0,58,0.00,,,0.00,0,WeatherCatV1.23B16,2013-11-04 02:38:00,
2013-11-03 20:39:00,52.7,38.3,29.63,SSW,192,6.0,17.0,58,0.00,,,0.00,0,WeatherCatV1.23B16,2013-11-04 02:39:00,
2013-11-03 20:40:00,52.6,38.2,29.63,South,180,6.0,17.0,58,0.00,,,0.00,0,WeatherCatV1.23B16,2013-11-04 02:40:00,
2013-11-03 20:41:00,52.6,38.2,29.63,SSE,153,3.0,17.0,58,0.00,,,0.00,0,WeatherCatV1.23B16,2013-11-04 02:41:00,
2013-11-03 20:43:00,52.6,38.2,29.63,SSE,164,4.0,13.0,58,0.00,,,0.00,0,WeatherCatV1.23B16,2013-11-04 02:43:00,
2013-11-03 20:44:00,52.6,38.2,29.63,South,187,5.0,13.0,58,0.00,,,0.00,0,WeatherCatV1.23B16,2013-11-04 02:44:00,
2013-11-03 20:45:00,52.6,38.2,29.63,South,177,3.0,15.0,58,0.00,,,0.00,0,WeatherCatV1.23B16,2013-11-04 02:45:00,
2013-11-03 20:46:00,52.6,38.2,29.63,SSE,160,5.0,15.0,58,0.00,,,0.00,0,WeatherCatV1.23B16,2013-11-04 02:46:00,
2013-11-03 20:48:00,52.5,38.2,29.63,South,185,8.0,11.0,58,0.00,,,0.00,0,WeatherCatV1.23B16,2013-11-04 02:48:00,
2013-11-03 20:49:00,52.5,38.2,29.64,SSE,159,6.0,11.0,58,0.00,,,0.00,0,WeatherCatV1.23B16,2013-11-04 02:49:00,
2013-11-03 20:50:00,52.5,38.2,29.64,SE,142,12.0,12.0,58,0.00,,,0.00,0,WeatherCatV1.23B16,2013-11-04 02:50:00,
2013-11-03 20:51:00,52.4,38.1,29.64,South,176,7.0,16.0,58,0.00,,,0.00,0,WeatherCatV1.23B16,2013-11-04 02:51:00,
2013-11-03 20:52:00,52.4,38.1,29.64,SE,126,10.0,16.0,58,0.00,,,0.00,0,WeatherCatV1.23B16,2013-11-04 02:52:00,
2013-11-03 20:53:00,52.4,38.1,29.64,SSE,155,5.0,16.0,58,0.00,,,0.00,0,WeatherCatV1.23B16,2013-11-04 02:53:00,
2013-11-03 20:55:00,52.4,38.5,29.64,SSE,165,5.0,13.0,59,0.00,,,0.00,0,WeatherCatV1.23B16,2013-11-04 02:55:00,
2013-11-03 20:56:00,52.3,38.0,29.64,SE,140,7.0,13.0,58,0.00,,,0.00,0,WeatherCatV1.23B16,2013-11-04 02:56:00,
2013-11-03 20:57:00,52.3,38.4,29.64,South,182,5.0,9.0,59,0.00,,,0.00,0,WeatherCatV1.23B16,2013-11-04 02:57:00,
2013-11-03 20:58:00,52.3,38.4,29.64,SSW,192,4.0,11.0,59,0.00,,,0.00,0,WeatherCatV1.23B16,2013-11-04 02:58:00,
2013-11-03 21:00:00,52.2,38.3,29.64,SSE,161,13.0,14.0,59,0.00,,,0.00,0,WeatherCatV1.23B16,2013-11-04 03:00:00,
2013-11-03 21:01:00,52.3,38.4,29.64,South,170,4.0,14.0,59,0.00,,,0.00,0,WeatherCatV1.23B16,2013-11-04 03:01:00,
2013-11-03 21:02:00,52.3,38.4,29.64,SSW,201,6.0,9.0,59,0.00,,,0.00,0,WeatherCatV1.23B16,2013-11-04 03:02:00,
2013-11-03 21:03:00,52.3,38.4,29.64,SSW,202,7.0,11.0,59,0.00,,,0.00,0,WeatherCatV1.23B16,2013-11-04 03:03:00,
2013-11-03 21:05:00,52.3,38.4,29.64,South,176,4.0,11.0,59,0.00,,,0.00,0,WeatherCatV1.23B16,2013-11-04 03:05:00,
2013-11-03 21:06:00,52.3,38.4,29.64,SSE,152,3.0,11.0,59,0.00,,,0.00,0,WeatherCatV1.23B16,2013-11-04 03:06:00,
2013-11-03 21:07:00,52.3,38.4,29.64,South,190,7.0,11.0,59,0.00,,,0.00,0,WeatherCatV1.23B16,2013-11-04 03:07:00,
2013-11-03 21:08:00,52.3,38.4,29.64,SSE,159,5.0,12.0,59,0.00,,,0.00,0,WeatherCatV1.23B16,2013-11-04 03:08:00,
2013-11-03 21:10:00,52.3,38.4,29.64,SSW,203,4.0,12.0,59,0.00,,,0.00,0,WeatherCatV1.23B16,2013-11-04 03:10:00,
2013-11-03 21:11:00,52.2,38.3,29.64,SSE,161,6.0,12.0,59,0.00,,,0.00,0,WeatherCatV1.23B16,2013-11-04 03:11:00,
2013-11-03 21:12:00,52.2,38.3,29.64,SSE,161,7.0,7.0,59,0.00,,,0.00,0,WeatherCatV1.23B16,2013-11-04 03:12:00,
2013-11-03 21:13:00,52.1,38.2,29.64,SSE,163,3.0,7.0,59,0.00,,,0.00,0,WeatherCatV1.23B16,2013-11-04 03:13:00,
2013-11-03 21:15:00,52.1,38.2,29.64,South,184,5.0,13.0,59,0.00,,,0.00,0,WeatherCatV1.23B16,2013-11-04 03:15:00,
2013-11-03 21:16:00,52.1,38.2,29.64,SSW,195,7.0,13.0,59,0.00,,,0.00,0,WeatherCatV1.23B16,2013-11-04 03:16:00,
2013-11-03 21:17:00,52.1,38.2,29.64,South,169,6.0,13.0,59,0.00,,,0.00,0,WeatherCatV1.23B16,2013-11-04 03:17:00,
2013-11-03 21:18:00,52.1,38.2,29.64,SSW,207,6.0,11.0,59,0.00,,,0.00,0,WeatherCatV1.23B16,2013-11-04 03:18:00,
2013-11-03 21:19:00,52.1,38.2,29.64,SSE,153,4.0,11.0,59,0.00,,,0.00,0,WeatherCatV1.23B16,2013-11-04 03:19:00,
2013-11-03 21:20:00,52.0,38.1,29.65,South,189,4.0,13.0,59,0.00,,,0.00,0,WeatherCatV1.23B16,2013-11-04 03:20:00,
2013-11-03 21:21:00,52.1,38.2,29.65,South,173,3.0,13.0,59,0.00,,,0.00,0,WeatherCatV1.23B16,2013-11-04 03:21:00,
2013-11-03 21:22:00,52.1,38.2,29.65,South,187,5.0,11.0,59,0.00,,,0.00,0,WeatherCatV1.23B16,2013-11-04 03:22:00,
2013-11-03 21:23:00,52.1,38.2,29.65,SSE,157,2.0,8.0,59,0.00,,,0.00,0,WeatherCatV1.23B16,2013-11-04 03:23:00,
2013-11-03 21:24:00,52.1,38.2,29.65,South,171,5.0,8.0,59,0.00,,,0.00,0,WeatherCatV1.23B16,2013-11-04 03:24:00,
2013-11-03 21:25:00,52.1,38.2,29.65,SSW,199,6.0,12.0,59,0.00,,,0.00,0,WeatherCatV1.23B16,2013-11-04 03:25:00,
2013-11-03 21:26:00,52.1,38.2,29.65,SW,215,6.0,12.0,59,0.00,,,0.00,0,WeatherCatV1.23B16,2013-11-04 03:26:00,
2013-11-03 21:27:00,52.1,38.2,29.65,SE,146,5.0,10.0,59,0.00,,,0.00,0,WeatherCatV1.23B16,2013-11-04 03:27:00,
2013-11-03 21:28:00,52.1,38.2,29.65,South,170,7.0,7.0,59,0.00,,,0.00,0,WeatherCatV1.23B16,2013-11-04 03:28:00,
2013-11-03 21:30:00,52.0,38.1,29.65,SE,144,2.0,10.0,59,0.00,,,0.00,0,WeatherCatV1.23B16,2013-11-04 03:30:00,
2013-11-03 21:31:00,52.1,38.2,29.65,SSE,165,3.0,10.0,59,0.00,,,0.00,0,WeatherCatV1.23B16,2013-11-04 03:31:00,
2013-11-03 21:32:00,52.0,38.1,29.65,SSW,213,6.0,11.0,59,0.00,,,0.00,0,WeatherCatV1.23B16,2013-11-04 03:32:00,
2013-11-03 21:33:00,52.0,38.1,29.65,SSE,162,9.0,11.0,59,0.00,,,0.00,0,WeatherCatV1.23B16,2013-11-04 03:33:00,
2013-11-03 21:35:00,52.1,38.6,29.65,SSW,194,3.0,12.0,60,0.00,,,0.00,0,WeatherCatV1.23B16,2013-11-04 03:35:00,
2013-11-03 21:36:00,52.1,38.2,29.65,SSW,194,8.0,11.0,59,0.00,,,0.00,0,WeatherCatV1.23B16,2013-11-04 03:36:00,
2013-11-03 21:40:00,52.1,38.2,29.65,South,177,6.0,8.0,59,0.00,,,0.00,0,WeatherCatV1.23B16,2013-11-04 03:40:00,
2013-11-03 21:45:00,52.1,38.2,29.65,South,177,6.0,8.0,59,0.00,,,0.00,0,WeatherCatV1.23B16,2013-11-04 03:45:00,
2013-11-03 21:50:00,52.1,38.2,29.65,South,180,7.0,19.0,59,0.00,,,0.00,0,WeatherCatV1.23B16,2013-11-04 03:50:00,
2013-11-03 21:55:00,52.1,38.2,29.65,South,180,7.0,19.0,59,0.00,,,0.00,0,WeatherCatV1.23B16,2013-11-04 03:55:00,
2013-11-03 22:00:00,52.1,38.2,29.65,South,180,7.0,19.0,59,0.00,,,0.00,0,WeatherCatV1.23B16,2013-11-04 04:00:00,
2013-11-03 22:05:00,51.9,38.0,29.65,South,180,5.0,13.0,59,0.00,,,0.00,0,WeatherCatV1.23B16,2013-11-04 04:05:00,
2013-11-03 22:10:00,51.9,38.0,29.65,South,180,5.0,13.0,59,0.00,,,0.00,0,WeatherCatV1.23B16,2013-11-04 04:10:00,
2013-11-03 22:15:00,51.9,38.0,29.65,South,180,5.0,13.0,59,0.00,,,0.00,0,WeatherCatV1.23B16,2013-11-04 04:15:00,
2013-11-03 22:20:00,50.9,37.9,29.65,SSE,158,5.0,12.0,61,0.00,,,0.00,0,WeatherCatV1.23B16,2013-11-04 04:20:00,
2013-11-03 22:25:00,50.9,37.9,29.65,SSE,158,5.0,12.0,61,0.00,,,0.00,0,WeatherCatV1.23B16,2013-11-04 04:25:00,
2013-11-03 22:30:00,50.9,37.9,29.65,SSE,158,5.0,12.0,61,0.00,,,0.00,0,WeatherCatV1.23B16,2013-11-04 04:30:00,
2013-11-03 22:35:00,50.1,37.6,29.65,SSE,158,6.0,14.0,62,0.00,,,0.00,0,WeatherCatV1.23B16,2013-11-04 04:35:00,
2013-11-03 22:40:00,50.1,37.6,29.65,SSE,158,6.0,14.0,62,0.00,,,0.00,0,WeatherCatV1.23B16,2013-11-04 04:40:00,
2013-11-03 22:45:00,50.1,37.6,29.65,SSE,158,6.0,14.0,62,0.00,,,0.00,0,WeatherCatV1.23B16,2013-11-04 04:45:00,
2013-11-03 22:50:00,49.6,37.5,29.65,SSE,158,5.0,15.0,63,0.00,,,0.00,0,WeatherCatV1.23B16,2013-11-04 04:50:00,
2013-11-03 22:55:00,49.6,37.5,29.65,SSE,158,5.0,15.0,63,0.00,,,0.00,0,WeatherCatV1.23B16,2013-11-04 04:55:00,
2013-11-03 23:00:00,49.6,37.5,29.65,SSE,158,5.0,15.0,63,0.00,,,0.00,0,WeatherCatV1.23B16,2013-11-04 05:00:00,
2013-11-03 23:05:00,49.4,37.7,29.65,SSE,158,4.0,12.0,64,0.00,,,0.00,0,WeatherCatV1.23B16,2013-11-04 05:05:00,
2013-11-03 23:10:00,49.4,37.7,29.65,SSE,158,4.0,12.0,64,0.00,,,0.00,0,WeatherCatV1.23B16,2013-11-04 05:10:00,
2013-11-03 23:15:00,49.4,37.7,29.65,SSE,158,4.0,12.0,64,0.00,,,0.00,0,WeatherCatV1.23B16,2013-11-04 05:15:00,
2013-11-03 23:20:00,49.2,37.5,29.65,SSE,158,4.0,14.0,64,0.00,,,0.00,0,WeatherCatV1.23B16,2013-11-04 05:20:00,
2013-11-03 23:25:00,49.2,37.5,29.65,SSE,158,4.0,14.0,64,0.00,,,0.00,0,WeatherCatV1.23B16,2013-11-04 05:25:00,
2013-11-03 23:30:00,49.2,37.5,29.65,SSE,158,4.0,14.0,64,0.00,,,0.00,0,WeatherCatV1.23B16,2013-11-04 05:30:00,
2013-11-03 23:35:00,49.5,37.8,29.66,SSE,158,4.0,11.0,64,0.00,,,0.00,0,WeatherCatV1.23B16,2013-11-04 05:35:00,
2013-11-03 23:40:00,49.5,37.8,29.66,SSE,158,4.0,11.0,64,0.00,,,0.00,0,WeatherCatV1.23B16,2013-11-04 05:40:00,
2013-11-03 23:45:00,49.5,37.8,29.66,SSE,158,4.0,11.0,64,0.00,,,0.00,0,WeatherCatV1.23B16,2013-11-04 05:45:00,
2013-11-03 23:50:00,49.5,37.8,29.65,SSE,158,5.0,13.0,64,0.00,,,0.00,0,WeatherCatV1.23B16,2013-11-04 05:50:00,
2013-11-03 23:55:00,49.5,37.8,29.65,SSE,158,5.0,13.0,64,0.00,,,0.00,0,WeatherCatV1.23B16,2013-11-04 05:55:00,